| time (UTC) | temp F | wind direction | speed knots | gust knots | rain 1hr in | rain 24hr in | rain mn in | humidity % | barometer mb |
| 20260504204726 | 74 | 218 | 0.0 | 3.5 | 0.00 | 0.00 | 0.00 | 35 | 1007.1 |
| 20260504204717 | 74 | 195 | 0.0 | 3.5 | 0.00 | 0.00 | 0.00 | 35 | 1007.1 |
| 20260504204627 | 74 | 246 | 0.0 | 7.0 | 0.00 | 0.00 | 0.00 | 34 | 1007.1 |
| 20260504204548 | 74 | 269 | 0.0 | 7.0 | 0.00 | 0.00 | 0.00 | 34 | 1007.1 |
| 20260504204520 | 74 | 229 | 0.0 | 7.0 | 0.00 | 0.00 | 0.00 | 34 | 1006.8 |
| 20260504204434 | 74 | 262 | 0.0 | 7.0 | 0.00 | 0.00 | 0.00 | 34 | 1007.1 |
| 20260504204225 | 74 | 183 | 0.0 | 7.0 | 0.00 | 0.00 | 0.00 | 35 | 1007.1 |
| 20260504204217 | 74 | 194 | 0.0 | 7.0 | 0.00 | 0.00 | 0.00 | 35 | 1007.1 |
| 20260504204137 | 74 | 225 | 0.0 | 7.0 | 0.00 | 0.00 | 0.00 | 34 | 1007.2 |
| 20260504204132 | 74 | 195 | 0.0 | 7.0 | 0.00 | 0.00 | 0.00 | 34 | 1007.2 |
| 20260504204035 | 74 | 229 | 0.0 | 7.0 | 0.00 | 0.00 | 0.00 | 34 | 1006.8 |
| 20260504203936 | 74 | 236 | 0.0 | 7.0 | 0.00 | 0.00 | 0.00 | 35 | 1007.2 |
| 20260504203931 | 74 | 234 | 0.0 | 7.0 | 0.00 | 0.00 | 0.00 | 34 | 1007.1 |
| 20260504203723 | 74 | 243 | 0.0 | 7.0 | 0.00 | 0.00 | 0.00 | 34 | 1007.2 |
| 20260504203717 | 74 | 238 | 0.0 | 7.0 | 0.00 | 0.00 | 0.00 | 34 | 1007.2 |
| 20260504203621 | 74 | 261 | 0.0 | 6.1 | 0.00 | 0.00 | 0.00 | 34 | 1007.2 |
| 20260504203614 | 75 | 187 | 0.0 | 6.1 | 0.00 | 0.00 | 0.00 | 34 | 1007.1 |
| 20260504203608 | 74 | 225 | 0.0 | 6.1 | 0.00 | 0.00 | 0.00 | 34 | 1007.2 |
| 20260504203520 | 74 | 197 | 0.0 | 6.1 | 0.00 | 0.00 | 0.00 | 33 | 1006.9 |
| 20260504203455 | 74 | 227 | 0.0 | 3.5 | 0.00 | 0.00 | 0.00 | 34 | 1007.2 |
| 20260504203451 | 74 | 207 | 0.0 | 3.5 | 0.00 | 0.00 | 0.00 | 33 | 1007.2 |
| 20260504203446 | 74 | 213 | 0.0 | 6.1 | 0.00 | 0.00 | 0.00 | 33 | 1007.2 |
| 20260504203332 | 75 | 179 | 0.0 | 6.1 | 0.00 | 0.00 | 0.00 | 33 | 1007.2 |
| 20260504203216 | 75 | 189 | 0.0 | 6.1 | 0.00 | 0.00 | 0.00 | 34 | 1007.1 |
| 20260504203208 | 74 | 234 | 0.0 | 3.5 | 0.00 | 0.00 | 0.00 | 33 | 1007.2 |
| 20260504203021 | 75 | 223 | 0.0 | 3.5 | 0.00 | 0.00 | 0.00 | 34 | 1006.9 |
| 20260504202832 | 74 | 199 | 0.0 | 3.5 | 0.00 | 0.00 | 0.00 | 34 | 1007.2 |
| 20260504202825 | 74 | 196 | 0.0 | 3.5 | 0.00 | 0.00 | 0.00 | 34 | 1007.2 |
| 20260504202606 | 74 | 226 | 0.0 | 1.7 | 0.00 | 0.00 | 0.00 | 34 | 1007.2 |
| 20260504202600 | 74 | 192 | 0.0 | 1.7 | 0.00 | 0.00 | 0.00 | 35 | 1007.2 |
| 20260504202520 | 74 | 238 | 0.0 | 1.7 | 0.00 | 0.00 | 0.00 | 35 | 1006.9 |
| 20260504202337 | 74 | 240 | 0.0 | 1.7 | 0.00 | 0.00 | 0.00 | 34 | 1007.2 |
| 20260504202223 | 74 | 226 | 0.0 | 1.7 | 0.00 | 0.00 | 0.00 | 34 | 1007.3 |
| 20260504202020 | 74 | 244 | 0.0 | 3.5 | 0.00 | 0.00 | 0.00 | 36 | 1007.0 |
| 20260504202013 | 74 | 279 | 0.0 | 3.5 | 0.00 | 0.00 | 0.00 | 36 | 1007.3 |
| 20260504201948 | 74 | 216 | 0.0 | 3.5 | 0.00 | 0.00 | 0.00 | 35 | 1007.3 |
| 20260504201913 | 74 | 276 | 0.0 | 3.5 | 0.00 | 0.00 | 0.00 | 34 | 1007.3 |
| 20260504201840 | 74 | 263 | 0.0 | 7.8 | 0.00 | 0.00 | 0.00 | 35 | 1007.3 |
| 20260504201835 | 74 | 213 | 0.0 | 3.5 | 0.00 | 0.00 | 0.00 | 35 | 1007.3 |
| 20260504201720 | 74 | 216 | 0.0 | 3.5 | 0.00 | 0.00 | 0.00 | 35 | 1007.3 |
| 20260504201550 | 74 | 215 | 0.0 | 7.8 | 0.00 | 0.00 | 0.00 | 34 | 1007.0 |
| 20260504201511 | 74 | 215 | 0.0 | 7.8 | 0.00 | 0.00 | 0.00 | 34 | 1007.3 |
| 20260504201410 | 74 | 213 | 0.0 | 7.8 | 0.00 | 0.00 | 0.00 | 34 | 1007.3 |
| 20260504201310 | 74 | 201 | 0.0 | 7.8 | 0.00 | 0.00 | 0.00 | 34 | 1007.3 |
| 20260504201215 | 74 | 210 | 0.0 | 7.8 | 0.00 | 0.00 | 0.00 | 34 | 1007.3 |
| 20260504201209 | 74 | 220 | 0.0 | 7.8 | 0.00 | 0.00 | 0.00 | 34 | 1007.3 |
| 20260504201108 | 74 | 216 | 0.9 | 7.8 | 0.00 | 0.00 | 0.00 | 34 | 1007.3 |
| 20260504201020 | 74 | 273 | 0.9 | 10.4 | 0.00 | 0.00 | 0.00 | 34 | 1007.0 |
| 20260504201008 | 74 | 258 | 0.9 | 10.4 | 0.00 | 0.00 | 0.00 | 34 | 1007.3 |
| 20260504200921 | 74 | 200 | 0.9 | 10.4 | 0.00 | 0.00 | 0.00 | 34 | 1007.4 |
| 20260504200916 | 74 | 203 | 0.0 | 10.4 | 0.00 | 0.00 | 0.00 | 34 | 1007.3 |
| 20260504200715 | 74 | 226 | 0.9 | 10.4 | 0.00 | 0.00 | 0.00 | 34 | 1007.5 |
| 20260504200706 | 74 | 192 | 0.9 | 10.4 | 0.00 | 0.00 | 0.00 | 34 | 1007.5 |
| 20260504200606 | 74 | 220 | 0.9 | 10.4 | 0.00 | 0.00 | 0.00 | 34 | 1007.5 |
| 20260504200520 | 74 | 209 | 0.0 | 10.4 | 0.00 | 0.00 | 0.00 | 34 | 1007.2 |
| 20260504200506 | 74 | 235 | 0.9 | 10.4 | 0.00 | 0.00 | 0.00 | 34 | 1007.5 |
| 20260504200405 | 74 | 203 | 0.9 | 10.4 | 0.00 | 0.00 | 0.00 | 33 | 1007.4 |
| 20260504200304 | 74 | 201 | 0.9 | 10.4 | 0.00 | 0.00 | 0.00 | 33 | 1007.5 |
| 20260504200214 | 74 | 221 | 0.9 | 10.4 | 0.00 | 0.00 | 0.00 | 33 | 1007.5 |
| 20260504200203 | 74 | 184 | 0.9 | 10.4 | 0.00 | 0.00 | 0.00 | 33 | 1007.5 |
| 20260504200020 | 74 | 192 | 0.0 | 7.8 | 0.00 | 0.00 | 0.00 | 35 | 1007.2 |
| 20260504200002 | 74 | 244 | 0.9 | 7.8 | 0.00 | 0.00 | 0.00 | 35 | 1007.5 |
| 20260504195901 | 74 | 204 | 0.9 | 7.8 | 0.00 | 0.00 | 0.00 | 35 | 1007.5 |
| 20260504195800 | 74 | 49 | 0.0 | 7.8 | 0.00 | 0.00 | 0.00 | 34 | 1007.5 |
| 20260504195718 | 74 | 261 | 0.0 | 3.5 | 0.00 | 0.00 | 0.00 | 34 | 1007.6 |
| 20260504195714 | 74 | 225 | 0.0 | 7.8 | 0.00 | 0.00 | 0.00 | 35 | 1007.5 |
| 20260504195708 | 74 | 237 | 0.0 | 3.5 | 0.00 | 0.00 | 0.00 | 35 | 1007.5 |
| 20260504195520 | 74 | 235 | 0.0 | 3.5 | 0.00 | 0.00 | 0.00 | 34 | 1007.2 |
| 20260504195458 | 74 | 232 | 0.0 | 3.5 | 0.00 | 0.00 | 0.00 | 35 | 1007.5 |
| 20260504195358 | 74 | 227 | 0.0 | 3.5 | 0.00 | 0.00 | 0.00 | 34 | 1007.6 |
| 20260504195257 | 74 | 259 | 0.0 | 4.3 | 0.00 | 0.00 | 0.00 | 35 | 1007.6 |
| 20260504195212 | 73 | 200 | 0.9 | 7.0 | 0.00 | 0.00 | 0.00 | 35 | 1007.6 |
| 20260504195157 | 73 | 242 | 0.9 | 10.4 | 0.00 | 0.00 | 0.00 | 35 | 1007.6 |
| 20260504195057 | 73 | 286 | 0.9 | 10.4 | 0.00 | 0.00 | 0.00 | 35 | 1007.5 |
| 20260504195035 | 73 | 248 | 0.0 | 10.4 | 0.00 | 0.00 | 0.00 | 35 | 1007.2 |
| 20260504194956 | 73 | 202 | 0.9 | 10.4 | 0.00 | 0.00 | 0.00 | 35 | 1007.5 |
| 20260504194910 | 73 | 164 | 0.9 | 10.4 | 0.00 | 0.00 | 0.00 | 35 | 1007.5 |
| 20260504194905 | 73 | 221 | 0.9 | 10.4 | 0.00 | 0.00 | 0.00 | 36 | 1007.6 |
| 20260504194712 | 73 | 234 | 0.9 | 10.4 | 0.00 | 0.00 | 0.00 | 35 | 1007.6 |
| 20260504194655 | 73 | 228 | 0.9 | 10.4 | 0.00 | 0.00 | 0.00 | 35 | 1007.6 |
| 20260504194554 | 73 | 257 | 0.9 | 10.4 | 0.00 | 0.00 | 0.00 | 34 | 1007.5 |
| 20260504194535 | 73 | 180 | 0.0 | 10.4 | 0.00 | 0.00 | 0.00 | 36 | 1007.2 |
| 20260504194453 | 73 | 227 | 0.9 | 10.4 | 0.00 | 0.00 | 0.00 | 35 | 1007.5 |
| 20260504194406 | 73 | 173 | 0.9 | 10.4 | 0.00 | 0.00 | 0.00 | 34 | 1007.5 |
| 20260504194401 | 73 | 227 | 0.9 | 10.4 | 0.00 | 0.00 | 0.00 | 34 | 1007.6 |
| 20260504194212 | 73 | 159 | 0.0 | 10.4 | 0.00 | 0.00 | 0.00 | 35 | 1007.5 |
| 20260504194151 | 73 | 184 | 0.0 | 7.8 | 0.00 | 0.00 | 0.00 | 35 | 1007.5 |
| 20260504194051 | 73 | 192 | 0.0 | 7.8 | 0.00 | 0.00 | 0.00 | 34 | 1007.6 |
| 20260504194020 | 73 | 175 | 0.0 | 7.8 | 0.00 | 0.00 | 0.00 | 34 | 1007.3 |
| 20260504193950 | 73 | 200 | 0.0 | 7.8 | 0.00 | 0.00 | 0.00 | 34 | 1007.6 |
| 20260504193901 | 73 | 215 | 0.0 | 7.8 | 0.00 | 0.00 | 0.00 | 33 | 1007.6 |
| 20260504193856 | 73 | 208 | 0.0 | 7.8 | 0.00 | 0.00 | 0.00 | 33 | 1007.6 |
| 20260504193712 | 73 | 219 | 0.0 | 7.8 | 0.00 | 0.00 | 0.00 | 35 | 1007.7 |
| 20260504193646 | 73 | 190 | 0.0 | 4.3 | 0.00 | 0.00 | 0.00 | 35 | 1007.7 |
| 20260504193634 | 73 | 256 | 0.0 | 4.3 | 0.00 | 0.00 | 0.00 | 37 | 1007.6 |
| 20260504193522 | 73 | 92 | 0.9 | 7.8 | 0.00 | 0.00 | 0.00 | 35 | 1007.6 |
| 20260504193520 | 73 | 196 | 0.0 | 7.0 | 0.00 | 0.00 | 0.00 | 36 | 1007.3 |
| 20260504193516 | 73 | 196 | 0.0 | 7.0 | 0.00 | 0.00 | 0.00 | 36 | 1007.6 |
| 20260504193403 | 73 | 195 | 0.9 | 7.0 | 0.00 | 0.00 | 0.00 | 35 | 1007.6 |
| 20260504193246 | 73 | 223 | 0.9 | 7.0 | 0.00 | 0.00 | 0.00 | 34 | 1007.6 |
| 20260504193239 | 73 | 226 | 0.9 | 7.0 | 0.00 | 0.00 | 0.00 | 36 | 1007.6 |
| 20260504193021 | 73 | 211 | 0.0 | 7.8 | 0.00 | 0.00 | 0.00 | 34 | 1007.3 |
| 20260504193018 | 73 | 174 | 0.0 | 7.8 | 0.00 | 0.00 | 0.00 | 34 | 1007.6 |
| 20260504193012 | 73 | 177 | 0.9 | 7.8 | 0.00 | 0.00 | 0.00 | 34 | 1007.6 |
| 20260504192746 | 73 | 186 | 0.0 | 7.8 | 0.00 | 0.00 | 0.00 | 33 | 1007.6 |
| 20260504192539 | 73 | 209 | 0.0 | 7.8 | 0.00 | 0.00 | 0.00 | 33 | 1007.6 |
| 20260504192520 | 73 | 207 | 0.0 | 7.8 | 0.00 | 0.00 | 0.00 | 32 | 1007.3 |
| 20260504192439 | 74 | 149 | 0.0 | 7.8 | 0.00 | 0.00 | 0.00 | 32 | 1007.6 |
| 20260504192338 | 74 | 186 | 0.0 | 7.8 | 0.00 | 0.00 | 0.00 | 33 | 1007.7 |
| 20260504192238 | 74 | 229 | 0.0 | 7.8 | 0.00 | 0.00 | 0.00 | 32 | 1007.7 |
| 20260504192210 | 74 | 186 | 0.0 | 7.8 | 0.00 | 0.00 | 0.00 | 32 | 1007.7 |
| 20260504192137 | 74 | 202 | 0.0 | 7.8 | 0.00 | 0.00 | 0.00 | 32 | 1007.7 |
| 20260504192037 | 75 | 190 | 0.0 | 4.3 | 0.00 | 0.00 | 0.00 | 33 | 1007.7 |
| 20260504192020 | 75 | 198 | 0.0 | 4.3 | 0.00 | 0.00 | 0.00 | 33 | 1007.4 |
| 20260504191934 | 75 | 224 | 0.0 | 4.3 | 0.00 | 0.00 | 0.00 | 32 | 1007.7 |
| 20260504191833 | 75 | 205 | 0.0 | 4.3 | 0.00 | 0.00 | 0.00 | 32 | 1007.7 |
| 20260504191733 | 75 | 242 | 0.0 | 4.3 | 0.00 | 0.00 | 0.00 | 34 | 1007.8 |
| 20260504191709 | 75 | 263 | 0.0 | 4.3 | 0.00 | 0.00 | 0.00 | 34 | 1007.8 |
| 20260504191632 | 75 | 240 | 0.0 | 4.3 | 0.00 | 0.00 | 0.00 | 34 | 1007.8 |
| 20260504191532 | 75 | 275 | 0.0 | 4.3 | 0.00 | 0.00 | 0.00 | 34 | 1007.9 |
| 20260504191520 | 75 | 203 | 0.0 | 4.3 | 0.00 | 0.00 | 0.00 | 34 | 1007.6 |
| 20260504191429 | 75 | 205 | 0.0 | 4.3 | 0.00 | 0.00 | 0.00 | 33 | 1007.9 |
| 20260504191329 | 75 | 208 | 0.0 | 4.3 | 0.00 | 0.00 | 0.00 | 32 | 1007.9 |
| 20260504191228 | 75 | 234 | 0.0 | 3.5 | 0.00 | 0.00 | 0.00 | 34 | 1007.9 |
| 20260504191210 | 74 | 151 | 0.0 | 3.5 | 0.00 | 0.00 | 0.00 | 34 | 1007.9 |
| 20260504191141 | 74 | 238 | 0.0 | 3.5 | 0.00 | 0.00 | 0.00 | 34 | 1007.8 |
| 20260504191136 | 74 | 182 | 0.0 | 3.5 | 0.00 | 0.00 | 0.00 | 33 | 1007.9 |
| 20260504191020 | 74 | 234 | 0.0 | 1.7 | 0.00 | 0.00 | 0.00 | 34 | 1007.6 |
| 20260504190931 | 74 | 240 | 0.0 | 0.9 | 0.00 | 0.00 | 0.00 | 33 | 1007.8 |
| 20260504190927 | 74 | 260 | 0.0 | 0.9 | 0.00 | 0.00 | 0.00 | 32 | 1007.9 |
| 20260504190920 | 74 | 217 | 0.0 | 0.9 | 0.00 | 0.00 | 0.00 | 33 | 1007.9 |
| 20260504190916 | 74 | 239 | 0.0 | 0.9 | 0.00 | 0.00 | 0.00 | 33 | 1007.9 |
| 20260504190910 | 74 | 209 | 0.0 | 0.9 | 0.00 | 0.00 | 0.00 | 32 | 1007.8 |
| 20260504190754 | 74 | 301 | 0.0 | 0.9 | 0.00 | 0.00 | 0.00 | 33 | 1007.9 |
| 20260504190642 | 74 | 241 | 0.0 | 0.9 | 0.00 | 0.00 | 0.00 | 33 | 1007.9 |
| 20260504190535 | 74 | 204 | 0.0 | 0.9 | 0.00 | 0.00 | 0.00 | 33 | 1007.6 |
| 20260504190325 | 74 | 156 | 0.0 | 0.9 | 0.00 | 0.00 | 0.00 | 34 | 1007.9 |
| 20260504190316 | 74 | 212 | 0.0 | 0.0 | 0.00 | 0.00 | 0.00 | 35 | 1007.9 |
| 20260504190121 | 74 | 228 | 0.0 | 1.7 | 0.00 | 0.00 | 0.00 | 34 | 1008.0 |
| 20260504190020 | 74 | 231 | 0.0 | 1.7 | 0.00 | 0.00 | 0.00 | 34 | 1007.7 |
| 20260504185948 | 74 | 217 | 0.0 | 1.7 | 0.00 | 0.00 | 0.00 | 37 | 1008.0 |
| 20260504185943 | 74 | 192 | 0.0 | 1.7 | 0.00 | 0.00 | 0.00 | 34 | 1008.0 |
| 20260504185938 | 74 | 234 | 0.0 | 1.7 | 0.00 | 0.00 | 0.00 | 35 | 1008.0 |
| 20260504185708 | 74 | 197 | 0.0 | 1.7 | 0.00 | 0.00 | 0.00 | 34 | 1008.1 |
| 20260504185633 | 74 | 209 | 0.0 | 1.7 | 0.00 | 0.00 | 0.00 | 33 | 1008.1 |
| 20260504185628 | 74 | 223 | 0.0 | 1.7 | 0.00 | 0.00 | 0.00 | 34 | 1008.1 |
| 20260504185520 | 74 | 209 | 0.0 | 1.7 | 0.00 | 0.00 | 0.00 | 33 | 1007.8 |
| 20260504185418 | 74 | 188 | 0.0 | 1.7 | 0.00 | 0.00 | 0.00 | 34 | 1008.1 |
| 20260504185316 | 74 | 186 | 0.0 | 1.7 | 0.00 | 0.00 | 0.00 | 32 | 1008.1 |
| 20260504185235 | 73 | 247 | 0.0 | 1.7 | 0.00 | 0.00 | 0.00 | 36 | 1008.2 |
| 20260504185230 | 74 | 211 | 0.0 | 1.7 | 0.00 | 0.00 | 0.00 | 33 | 1008.1 |
| 20260504185223 | 74 | 227 | 0.0 | 1.7 | 0.00 | 0.00 | 0.00 | 33 | 1008.2 |
| 20260504185020 | 73 | 194 | 0.0 | 0.9 | 0.00 | 0.00 | 0.00 | 35 | 1007.9 |
| 20260504185016 | 73 | 194 | 0.0 | 2.6 | 0.00 | 0.00 | 0.00 | 37 | 1008.2 |
| 20260504184915 | 73 | 221 | 0.0 | 2.6 | 0.00 | 0.00 | 0.00 | 34 | 1008.2 |
| 20260504184814 | 73 | 279 | 0.0 | 3.5 | 0.00 | 0.00 | 0.00 | 33 | 1008.2 |
| 20260504184714 | 73 | 197 | 0.0 | 3.5 | 0.00 | 0.00 | 0.00 | 33 | 1008.2 |
| 20260504184706 | 73 | 232 | 0.0 | 3.5 | 0.00 | 0.00 | 0.00 | 33 | 1008.2 |
| 20260504184613 | 73 | 226 | 0.0 | 3.5 | 0.00 | 0.00 | 0.00 | 33 | 1008.2 |
| 20260504184520 | 73 | 277 | 0.0 | 11.3 | 0.00 | 0.00 | 0.00 | 34 | 1008.0 |
| 20260504184513 | 73 | 233 | 0.0 | 11.3 | 0.00 | 0.00 | 0.00 | 34 | 1008.3 |
| 20260504184411 | 73 | 236 | 0.9 | 11.3 | 0.00 | 0.00 | 0.00 | 37 | 1008.3 |
| 20260504184312 | 73 | 267 | 0.9 | 11.3 | 0.00 | 0.00 | 0.00 | 35 | 1008.3 |
| 20260504184251 | 73 | 183 | 0.9 | 11.3 | 0.00 | 0.00 | 0.00 | 33 | 1008.3 |
| 20260504184238 | 73 | 245 | 0.9 | 11.3 | 0.00 | 0.00 | 0.00 | 34 | 1008.2 |
| 20260504184020 | 73 | 252 | 0.0 | 11.3 | 0.00 | 0.00 | 0.00 | 32 | 1007.9 |
| 20260504184018 | 73 | 229 | 0.9 | 11.3 | 0.00 | 0.00 | 0.00 | 32 | 1008.3 |
| 20260504184013 | 73 | 237 | 0.9 | 11.3 | 0.00 | 0.00 | 0.00 | 32 | 1008.2 |
| 20260504184004 | 73 | 182 | 0.9 | 11.3 | 0.00 | 0.00 | 0.00 | 34 | 1008.3 |
| 20260504183845 | 73 | 229 | 0.9 | 11.3 | 0.00 | 0.00 | 0.00 | 32 | 1008.3 |
| 20260504183628 | 74 | 200 | 0.0 | 7.0 | 0.00 | 0.00 | 0.00 | 32 | 1008.4 |
| 20260504183622 | 74 | 173 | 0.0 | 11.3 | 0.00 | 0.00 | 0.00 | 32 | 1008.3 |
| 20260504183535 | 74 | 134 | 0.9 | 6.1 | 0.00 | 0.00 | 0.00 | 34 | 1008.0 |
| 20260504183345 | 74 | 178 | 0.0 | 5.2 | 0.00 | 0.00 | 0.00 | 34 | 1008.4 |
| 20260504183339 | 74 | 202 | 0.0 | 6.1 | 0.00 | 0.00 | 0.00 | 34 | 1008.4 |
| 20260504183226 | 74 | 255 | 0.0 | 6.1 | 0.00 | 0.00 | 0.00 | 33 | 1008.4 |
| 20260504183220 | 74 | 255 | 0.0 | 6.1 | 0.00 | 0.00 | 0.00 | 33 | 1008.4 |
| 20260504183020 | 74 | 190 | 0.9 | 5.2 | 0.00 | 0.00 | 0.00 | 33 | 1008.2 |
| 20260504182901 | 74 | 225 | 0.0 | 4.3 | 0.00 | 0.00 | 0.00 | 34 | 1008.5 |
| 20260504182814 | 74 | 194 | 0.0 | 4.3 | 0.00 | 0.00 | 0.00 | 33 | 1008.4 |
| 20260504182707 | 74 | 244 | 0.0 | 4.3 | 0.00 | 0.00 | 0.00 | 33 | 1008.4 |
| 20260504182701 | 74 | 243 | 0.0 | 4.3 | 0.00 | 0.00 | 0.00 | 33 | 1008.4 |
| 20260504182559 | 74 | 300 | 0.0 | 7.8 | 0.00 | 0.00 | 0.00 | 34 | 1008.4 |
| 20260504182520 | 74 | 237 | 0.0 | 7.8 | 0.00 | 0.00 | 0.00 | 34 | 1008.1 |
| 20260504182458 | 74 | 237 | 0.0 | 7.8 | 0.00 | 0.00 | 0.00 | 34 | 1008.4 |
| 20260504182438 | 73 | 239 | 0.0 | 7.8 | 0.00 | 0.00 | 0.00 | 35 | 1008.5 |
| 20260504182434 | 73 | 244 | 0.0 | 7.8 | 0.00 | 0.00 | 0.00 | 35 | 1008.5 |
| 20260504182428 | 73 | 253 | 0.0 | 7.8 | 0.00 | 0.00 | 0.00 | 33 | 1008.6 |
| 20260504182423 | 73 | 241 | 0.0 | 7.8 | 0.00 | 0.00 | 0.00 | 34 | 1008.4 |
| 20260504182159 | 73 | 240 | 0.0 | 7.8 | 0.00 | 0.00 | 0.00 | 33 | 1008.5 |
| 20260504182035 | 73 | 228 | 2.6 | 7.8 | 0.00 | 0.00 | 0.00 | 33 | 1008.2 |
| 20260504182028 | 73 | 243 | 0.0 | 7.8 | 0.00 | 0.00 | 0.00 | 33 | 1008.5 |
| 20260504181849 | 73 | 188 | 0.0 | 7.8 | 0.00 | 0.00 | 0.00 | 31 | 1008.6 |
| 20260504181809 | 74 | 178 | 0.0 | 7.8 | 0.00 | 0.00 | 0.00 | 33 | 1008.5 |
| 20260504181646 | 74 | 184 | 0.0 | 7.8 | 0.00 | 0.00 | 0.00 | 34 | 1008.5 |
| 20260504181559 | 74 | 178 | 0.0 | 6.1 | 0.00 | 0.00 | 0.00 | 35 | 1008.5 |
| 20260504181554 | 74 | 218 | 0.0 | 6.1 | 0.00 | 0.00 | 0.00 | 32 | 1008.6 |
| 20260504181520 | 74 | 202 | 0.0 | 6.1 | 0.00 | 0.00 | 0.00 | 32 | 1008.2 |
| 20260504181342 | 74 | 222 | 0.9 | 10.4 | 0.00 | 0.00 | 0.00 | 32 | 1008.5 |
| 20260504181241 | 74 | 264 | 0.9 | 10.4 | 0.00 | 0.00 | 0.00 | 32 | 1008.6 |
| 20260504181201 | 74 | 286 | 0.9 | 10.4 | 0.00 | 0.00 | 0.00 | 33 | 1008.6 |
| 20260504181140 | 74 | 212 | 0.9 | 10.4 | 0.00 | 0.00 | 0.00 | 34 | 1008.6 |
| 20260504181054 | 74 | 252 | 0.9 | 10.4 | 0.00 | 0.00 | 0.00 | 33 | 1008.7 |
| 20260504181049 | 74 | 194 | 0.9 | 10.4 | 0.00 | 0.00 | 0.00 | 33 | 1008.7 |
| 20260504181035 | 74 | 182 | 0.0 | 10.4 | 0.00 | 0.00 | 0.00 | 33 | 1008.4 |
| 20260504180928 | 74 | 263 | 0.0 | 10.4 | 0.00 | 0.00 | 0.00 | 33 | 1008.7 |
| 20260504180817 | 73 | 219 | 0.0 | 10.4 | 0.00 | 0.00 | 0.00 | 33 | 1008.6 |
| 20260504180812 | 73 | 242 | 0.0 | 1.7 | 0.00 | 0.00 | 0.00 | 34 | 1008.7 |
| 20260504180807 | 73 | 227 | 0.0 | 5.2 | 0.00 | 0.00 | 0.00 | 34 | 1008.7 |
| 20260504180803 | 73 | 229 | 0.0 | 5.2 | 0.00 | 0.00 | 0.00 | 33 | 1008.7 |
| 20260504180758 | 74 | 234 | 0.0 | 10.4 | 0.00 | 0.00 | 0.00 | 34 | 1008.7 |
| 20260504180750 | 73 | 240 | 0.0 | 10.4 | 0.00 | 0.00 | 0.00 | 33 | 1008.7 |
| 20260504180743 | 73 | 201 | 0.0 | 10.4 | 0.00 | 0.00 | 0.00 | 34 | 1008.7 |
| 20260504180519 | 73 | 217 | 0.0 | 10.4 | 0.00 | 0.00 | 0.00 | 34 | 1008.3 |
| 20260504180136 | 73 | 229 | 0.0 | 5.2 | 0.00 | 0.00 | 0.00 | 33 | 1008.7 |
| 20260504180035 | 73 | 292 | 0.0 | 5.2 | 0.00 | 0.00 | 0.00 | 33 | 1008.7 |
| 20260504180020 | 73 | 238 | 0.0 | 5.2 | 0.00 | 0.00 | 0.00 | 33 | 1008.5 |
| 20260504175933 | 73 | 199 | 0.0 | 5.2 | 0.00 | 0.00 | 0.00 | 34 | 1008.8 |
| 20260504175834 | 73 | 246 | 0.0 | 5.2 | 0.00 | 0.00 | 0.00 | 34 | 1008.8 |
| 20260504175733 | 73 | 267 | 0.0 | 5.2 | 0.00 | 0.00 | 0.00 | 34 | 1008.8 |
| 20260504175659 | 73 | 288 | 0.0 | 5.2 | 0.00 | 0.00 | 0.00 | 33 | 1008.9 |
| 20260504175632 | 73 | 259 | 0.0 | 5.2 | 0.00 | 0.00 | 0.00 | 33 | 1008.9 |
| 20260504175532 | 72 | 286 | 0.0 | 5.2 | 0.00 | 0.00 | 0.00 | 35 | 1008.9 |
| 20260504175520 | 72 | 237 | 0.0 | 5.2 | 0.00 | 0.00 | 0.00 | 35 | 1008.6 |
| 20260504175431 | 72 | 255 | 0.0 | 5.2 | 0.00 | 0.00 | 0.00 | 34 | 1008.9 |
| 20260504175332 | 72 | 200 | 0.9 | 5.2 | 0.00 | 0.00 | 0.00 | 36 | 1009.0 |
| 20260504175250 | 72 | 209 | 0.0 | 7.0 | 0.00 | 0.00 | 0.00 | 32 | 1009.0 |
| 20260504175245 | 72 | 221 | 0.9 | 7.0 | 0.00 | 0.00 | 0.00 | 34 | 1009.0 |
| 20260504175237 | 72 | 200 | 0.0 | 7.0 | 0.00 | 0.00 | 0.00 | 32 | 1009.0 |
| 20260504175050 | 72 | 212 | 2.6 | 7.0 | 0.00 | 0.00 | 0.00 | 33 | 1008.7 |
| 20260504175030 | 72 | 231 | 0.0 | 7.0 | 0.00 | 0.00 | 0.00 | 33 | 1009.0 |
| 20260504174929 | 72 | 200 | 0.0 | 7.0 | 0.00 | 0.00 | 0.00 | 33 | 1009.0 |
| 20260504174922 | 73 | 194 | 0.0 | 7.0 | 0.00 | 0.00 | 0.00 | 31 | 1008.9 |
| 20260504174827 | 73 | 166 | 0.0 | 7.0 | 0.00 | 0.00 | 0.00 | 32 | 1008.9 |
| 20260504174806 | 73 | 184 | 0.0 | 7.0 | 0.00 | 0.00 | 0.00 | 32 | 1009.0 |
| 20260504174624 | 73 | 198 | 0.0 | 7.0 | 0.00 | 0.00 | 0.00 | 31 | 1008.9 |
| 20260504174525 | 73 | 192 | 0.0 | 7.0 | 0.00 | 0.00 | 0.00 | 32 | 1009.0 |
| 20260504174520 | 73 | 208 | 0.0 | 7.0 | 0.00 | 0.00 | 0.00 | 32 | 1008.7 |
| 20260504174424 | 73 | 200 | 0.0 | 7.0 | 0.00 | 0.00 | 0.00 | 33 | 1009.0 |
| 20260504174324 | 73 | 200 | 0.9 | 17.4 | 0.00 | 0.00 | 0.00 | 34 | 1009.0 |
| 20260504174223 | 73 | 193 | 0.0 | 17.4 | 0.00 | 0.00 | 0.00 | 32 | 1009.1 |
| 20260504174158 | 73 | 190 | 0.9 | 17.4 | 0.00 | 0.00 | 0.00 | 32 | 1009.1 |
| 20260504174123 | 73 | 220 | 0.9 | 17.4 | 0.00 | 0.00 | 0.00 | 34 | 1009.1 |
| 20260504174022 | 73 | 206 | 0.9 | 17.4 | 0.00 | 0.00 | 0.00 | 34 | 1009.1 |
| 20260504174020 | 73 | 173 | 0.0 | 17.4 | 0.00 | 0.00 | 0.00 | 32 | 1008.8 |
| 20260504173922 | 73 | 208 | 0.9 | 17.4 | 0.00 | 0.00 | 0.00 | 32 | 1009.1 |
| 20260504173821 | 73 | 254 | 0.9 | 17.4 | 0.00 | 0.00 | 0.00 | 33 | 1009.1 |
| 20260504173722 | 73 | 197 | 0.9 | 17.4 | 0.00 | 0.00 | 0.00 | 32 | 1009.1 |
| 20260504173656 | 73 | 221 | 0.9 | 17.4 | 0.00 | 0.00 | 0.00 | 32 | 1009.2 |
| 20260504173622 | 73 | 203 | 0.9 | 17.4 | 0.00 | 0.00 | 0.00 | 32 | 1009.2 |
| 20260504173520 | 73 | 229 | 0.9 | 17.4 | 0.00 | 0.00 | 0.00 | 33 | 1009.1 |
| 20260504173420 | 73 | 238 | 0.9 | 17.4 | 0.00 | 0.00 | 0.00 | 34 | 1009.2 |
| 20260504173352 | 73 | 270 | 0.0 | 10.4 | 0.00 | 0.00 | 0.00 | 33 | 1009.2 |
| 20260504173346 | 72 | 254 | 0.0 | 10.4 | 0.00 | 0.00 | 0.00 | 35 | 1009.2 |
| 20260504173341 | 73 | 232 | 0.0 | 7.0 | 0.00 | 0.00 | 0.00 | 33 | 1009.1 |
| 20260504173225 | 72 | 253 | 0.0 | 10.4 | 0.00 | 0.00 | 0.00 | 33 | 1009.2 |
| 20260504173019 | 72 | 253 | 0.0 | 10.4 | 0.00 | 0.00 | 0.00 | 35 | 1009.0 |
| 20260504173017 | 72 | 242 | 0.0 | 10.4 | 0.00 | 0.00 | 0.00 | 35 | 1009.3 |
| 20260504172917 | 72 | 242 | 0.0 | 10.4 | 0.00 | 0.00 | 0.00 | 34 | 1009.3 |
| 20260504172815 | 72 | 214 | 0.0 | 10.4 | 0.00 | 0.00 | 0.00 | 34 | 1009.2 |
| 20260504172715 | 72 | 158 | 0.0 | 10.4 | 0.00 | 0.00 | 0.00 | 35 | 1009.2 |
| 20260504172655 | 72 | 200 | 0.0 | 10.4 | 0.00 | 0.00 | 0.00 | 35 | 1009.2 |
| 20260504172614 | 72 | 212 | 0.0 | 10.4 | 0.00 | 0.00 | 0.00 | 33 | 1009.3 |
| 20260504172534 | 72 | 173 | 0.0 | 10.4 | 0.00 | 0.00 | 0.00 | 32 | 1009.0 |
| 20260504172514 | 72 | 182 | 0.0 | 10.4 | 0.00 | 0.00 | 0.00 | 32 | 1009.3 |
| 20260504172413 | 72 | 241 | 0.0 | 10.4 | 0.00 | 0.00 | 0.00 | 33 | 1009.3 |
| 20260504172312 | 72 | 194 | 0.0 | 10.4 | 0.00 | 0.00 | 0.00 | 33 | 1009.3 |
| 20260504172212 | 72 | 206 | 0.0 | 5.2 | 0.00 | 0.00 | 0.00 | 35 | 1009.3 |
| 20260504172156 | 72 | 194 | 0.0 | 5.2 | 0.00 | 0.00 | 0.00 | 35 | 1009.3 |
| 20260504172111 | 72 | 151 | 0.0 | 0.9 | 0.00 | 0.00 | 0.00 | 34 | 1009.3 |
| 20260504172020 | 72 | 229 | 0.0 | 0.9 | 0.00 | 0.00 | 0.00 | 34 | 1009.0 |
| 20260504172010 | 72 | 229 | 0.0 | 0.9 | 0.00 | 0.00 | 0.00 | 34 | 1009.3 |
| 20260504171924 | 72 | 153 | 0.0 | 7.0 | 0.00 | 0.00 | 0.00 | 35 | 1009.3 |
| 20260504171918 | 72 | 219 | 0.0 | 0.9 | 0.00 | 0.00 | 0.00 | 37 | 1009.3 |
| 20260504171709 | 71 | 215 | 0.0 | 7.0 | 0.00 | 0.00 | 0.00 | 35 | 1009.3 |
| 20260504171655 | 71 | 189 | 0.0 | 7.0 | 0.00 | 0.00 | 0.00 | 35 | 1009.3 |
| 20260504171608 | 71 | 186 | 0.0 | 8.7 | 0.00 | 0.00 | 0.00 | 35 | 1009.4 |
| 20260504171519 | 71 | 196 | 0.0 | 7.8 | 0.00 | 0.00 | 0.00 | 36 | 1009.0 |
| 20260504171508 | 71 | 196 | 0.0 | 8.7 | 0.00 | 0.00 | 0.00 | 36 | 1009.3 |
| 20260504171419 | 71 | 167 | 0.0 | 8.7 | 0.00 | 0.00 | 0.00 | 33 | 1009.4 |
| 20260504171414 | 71 | 215 | 0.0 | 8.7 | 0.00 | 0.00 | 0.00 | 34 | 1009.3 |
| 20260504171204 | 72 | 194 | 0.0 | 8.7 | 0.00 | 0.00 | 0.00 | 33 | 1009.4 |
| 20260504171155 | 72 | 159 | 0.0 | 8.7 | 0.00 | 0.00 | 0.00 | 34 | 1009.4 |
| 20260504171105 | 71 | 173 | 0.0 | 8.7 | 0.00 | 0.00 | 0.00 | 35 | 1009.4 |
| 20260504171020 | 71 | 223 | 0.0 | 7.8 | 0.00 | 0.00 | 0.00 | 34 | 1009.1 |
| 20260504171018 | 71 | 288 | 0.9 | 8.7 | 0.00 | 0.00 | 0.00 | 35 | 1009.4 |
| 20260504171013 | 71 | 221 | 0.9 | 8.7 | 0.00 | 0.00 | 0.00 | 34 | 1009.4 |
| 20260504170803 | 71 | 222 | 0.9 | 8.7 | 0.00 | 0.00 | 0.00 | 36 | 1009.5 |
| 20260504170655 | 71 | 233 | 0.9 | 8.7 | 0.00 | 0.00 | 0.00 | 34 | 1009.5 |
| 20260504170629 | 71 | 196 | 0.0 | 7.8 | 0.00 | 0.00 | 0.00 | 34 | 1009.5 |
| 20260504170625 | 71 | 189 | 0.0 | 7.8 | 0.00 | 0.00 | 0.00 | 34 | 1009.5 |
| 20260504170619 | 71 | 217 | 0.0 | 7.8 | 0.00 | 0.00 | 0.00 | 33 | 1009.5 |
| 20260504170519 | 71 | 189 | 0.9 | 7.8 | 0.00 | 0.00 | 0.00 | 33 | 1009.2 |
| 20260504170316 | 71 | 194 | 0.0 | 7.8 | 0.00 | 0.00 | 0.00 | 33 | 1009.6 |
| 20260504170310 | 71 | 236 | 0.0 | 7.8 | 0.00 | 0.00 | 0.00 | 32 | 1009.5 |
| 20260504170154 | 71 | 216 | 0.0 | 7.8 | 0.00 | 0.00 | 0.00 | 33 | 1009.6 |
| 20260504160444 | 71 | 226 | 0.0 | 10.4 | 0.00 | 0.00 | 0.00 | 33 | 1010.2 |
| 20260504160440 | 71 | 248 | 0.0 | 10.4 | 0.00 | 0.00 | 0.00 | 32 | 1010.2 |
| 20260504160229 | 71 | 239 | 0.0 | 3.5 | 0.00 | 0.00 | 0.00 | 34 | 1010.2 |
| 20260504160143 | 71 | 273 | 0.0 | 3.5 | 0.00 | 0.00 | 0.00 | 34 | 1010.2 |
| 20260504160130 | 71 | 245 | 0.0 | 3.5 | 0.00 | 0.00 | 0.00 | 34 | 1010.2 |
| 20260504151107 | 69 | 306 | 0.0 | 6.1 | 0.00 | 0.00 | 0.00 | 39 | 1006.2 |
| 20260504151020 | 69 | 253 | 0.0 | 5.2 | 0.00 | 0.00 | 0.00 | 40 | 1006.0 |
| 20260504150921 | 69 | 270 | 0.0 | 6.1 | 0.00 | 0.00 | 0.00 | 40 | 1006.1 |
| 20260504150856 | 69 | 242 | 0.0 | 6.1 | 0.00 | 0.00 | 0.00 | 42 | 1006.1 |
| 20260504150824 | 68 | 235 | 0.0 | 6.1 | 0.00 | 0.00 | 0.00 | 38 | 1006.1 |
| 20260504150819 | 69 | 211 | 0.0 | 6.1 | 0.00 | 0.00 | 0.00 | 41 | 1006.1 |
| 20260504150809 | 69 | 229 | 0.0 | 6.1 | 0.00 | 0.00 | 0.00 | 40 | 1006.1 |
| 20260504150519 | 68 | 231 | 0.0 | 5.2 | 0.00 | 0.00 | 0.00 | 38 | 1005.9 |
| 20260504150507 | 68 | 248 | 0.0 | 6.1 | 0.00 | 0.00 | 0.00 | 41 | 1006.1 |
| 20260504150503 | 68 | 233 | 0.0 | 6.1 | 0.00 | 0.00 | 0.00 | 38 | 1006.1 |
| 20260504150255 | 68 | 182 | 0.0 | 6.1 | 0.00 | 0.00 | 0.00 | 39 | 1006.2 |
| 20260504150154 | 68 | 228 | 0.0 | 6.1 | 0.00 | 0.00 | 0.00 | 39 | 1006.2 |
| 20260504150134 | 68 | 235 | 0.0 | 6.1 | 0.00 | 0.00 | 0.00 | 39 | 1006.2 |
| 20260504150105 | 68 | 206 | 0.0 | 6.1 | 0.00 | 0.00 | 0.00 | 39 | 1006.2 |
| 20260504141324 | 64 | 169 | 0.0 | 7.0 | 0.00 | 0.00 | 0.00 | 49 | 1006.3 |
| 20260504141223 | 64 | 146 | 0.0 | 7.0 | 0.00 | 0.00 | 0.00 | 50 | 1006.3 |
| 20260504141142 | 63 | 239 | 0.0 | 5.2 | 0.00 | 0.00 | 0.00 | 53 | 1006.5 |
| 20260504141137 | 64 | 167 | 0.0 | 5.2 | 0.00 | 0.00 | 0.00 | 52 | 1006.4 |
| 20260504141131 | 64 | 178 | 0.0 | 5.2 | 0.00 | 0.00 | 0.00 | 52 | 1006.4 |
| 20260504141020 | 63 | 244 | 0.0 | 3.5 | 0.00 | 0.00 | 0.00 | 53 | 1006.3 |
| 20260504140921 | 63 | 204 | 0.0 | 5.2 | 0.00 | 0.00 | 0.00 | 53 | 1006.5 |
| 20260504140821 | 63 | 198 | 0.0 | 5.2 | 0.00 | 0.00 | 0.00 | 52 | 1006.5 |
| 20260504140721 | 63 | 157 | 0.0 | 5.2 | 0.00 | 0.00 | 0.00 | 52 | 1006.6 |
| 20260504140626 | 63 | 178 | 0.0 | 5.2 | 0.00 | 0.00 | 0.00 | 53 | 1006.6 |
| 20260504140620 | 63 | 173 | 0.0 | 5.2 | 0.00 | 0.00 | 0.00 | 53 | 1006.6 |
| 20260504140520 | 63 | 216 | 0.0 | 3.5 | 0.00 | 0.00 | 0.00 | 54 | 1006.4 |
| 20260504140420 | 63 | 190 | 0.0 | 3.5 | 0.00 | 0.00 | 0.00 | 53 | 1006.6 |
| 20260504140355 | 62 | 234 | 0.0 | 3.5 | 0.00 | 0.00 | 0.00 | 53 | 1006.5 |
| 20260504140349 | 62 | 231 | 0.0 | 3.5 | 0.00 | 0.00 | 0.00 | 54 | 1006.5 |
| 20260504140344 | 62 | 198 | 0.0 | 3.5 | 0.00 | 0.00 | 0.00 | 52 | 1006.6 |
| 20260504140116 | 62 | 234 | 0.0 | 3.5 | 0.00 | 0.00 | 0.00 | 53 | 1006.6 |
| 20260504130744 | 60 | 219 | 0.0 | 2.6 | 0.00 | 0.00 | 0.00 | 59 | 1008.2 |
| 20260504130728 | 60 | 242 | 0.0 | 2.6 | 0.00 | 0.00 | 0.00 | 59 | 1008.3 |
| 20260504130543 | 59 | 215 | 0.0 | 2.6 | 0.00 | 0.00 | 0.00 | 59 | 1008.2 |
| 20260504130520 | 59 | 235 | 0.0 | 2.6 | 0.00 | 0.00 | 0.00 | 59 | 1008.2 |
| 20260504130457 | 59 | 239 | 0.0 | 5.2 | 0.00 | 0.00 | 0.00 | 59 | 1008.3 |
| 20260504130452 | 59 | 199 | 0.0 | 5.2 | 0.00 | 0.00 | 0.00 | 60 | 1008.3 |
| 20260504130242 | 59 | 200 | 0.0 | 5.2 | 0.00 | 0.00 | 0.00 | 59 | 1008.4 |
| 20260504130141 | 59 | 279 | 0.0 | 5.2 | 0.00 | 0.00 | 0.00 | 58 | 1008.3 |
| 20260504130119 | 59 | 190 | 0.0 | 5.2 | 0.00 | 0.00 | 0.00 | 58 | 1008.3 |
| 20260504120136 | 56 | 215 | 0.0 | 0.9 | 0.00 | 0.00 | 0.00 | 63 | 1011.5 |
| 20260504110621 | 48 | 0 | 0.0 | 0.9 | 0.00 | 0.00 | 0.00 | 73 | 1012.2 |
| 20260504110520 | 48 | 360 | 0.0 | 0.9 | 0.00 | 0.00 | 0.00 | 74 | 1012.2 |
| 20260504110250 | 47 | 0 | 0.0 | 0.0 | 0.00 | 0.00 | 0.00 | 75 | 1012.1 |
| 20260504110109 | 47 | 0 | 0.0 | 0.0 | 0.00 | 0.00 | 0.00 | 75 | 1012.0 |
| 20260504100559 | 39 | 0 | 0.0 | 0.0 | 0.00 | 0.00 | 0.00 | 86 | 1011.8 |
| 20260504100520 | 39 | 360 | 0.0 | 0.0 | 0.00 | 0.00 | 0.00 | 86 | 1012.0 |
| 20260504100515 | 38 | 0 | 0.0 | 0.0 | 0.00 | 0.00 | 0.00 | 86 | 1011.8 |
| 20260504100415 | 38 | 0 | 0.0 | 0.0 | 0.00 | 0.00 | 0.00 | 87 | 1011.8 |
| 20260504100314 | 38 | 0 | 0.0 | 0.0 | 0.00 | 0.00 | 0.00 | 88 | 1011.9 |
| 20260504100214 | 38 | 0 | 0.0 | 0.0 | 0.00 | 0.00 | 0.00 | 88 | 1011.9 |
| 20260504100113 | 38 | 0 | 0.0 | 0.0 | 0.00 | 0.00 | 0.00 | 89 | 1011.9 |
| 20260504090137 | 36 | 227 | 0.0 | 0.0 | 0.00 | 0.00 | 0.00 | 89 | 1011.8 |
| 20260504081713 | 37 | 227 | 0.0 | 0.0 | 0.00 | 0.00 | 0.00 | 87 | 1011.9 |
| 20260504081613 | 37 | 227 | 0.0 | 0.0 | 0.00 | 0.00 | 0.00 | 87 | 1011.9 |
| 20260504081525 | 37 | 227 | 0.0 | 0.0 | 0.00 | 0.00 | 0.00 | 87 | 1011.9 |
| 20260504081521 | 37 | 227 | 0.0 | 0.0 | 0.00 | 0.00 | 0.00 | 87 | 1011.9 |
| 20260504081311 | 37 | 227 | 0.0 | 0.0 | 0.00 | 0.00 | 0.00 | 87 | 1011.9 |
| 20260504081210 | 37 | 227 | 0.0 | 0.0 | 0.00 | 0.00 | 0.00 | 87 | 1011.9 |
| 20260504081110 | 37 | 227 | 0.0 | 0.0 | 0.00 | 0.00 | 0.00 | 87 | 1011.9 |
| 20260504081042 | 37 | 227 | 0.0 | 0.0 | 0.00 | 0.00 | 0.00 | 87 | 1011.9 |
| 20260504081020 | 37 | 227 | 0.0 | 0.0 | 0.00 | 0.00 | 0.00 | 87 | 1012.1 |
| 20260504081009 | 37 | 227 | 0.0 | 0.0 | 0.00 | 0.00 | 0.00 | 87 | 1011.9 |
| 20260504080909 | 37 | 227 | 0.0 | 0.0 | 0.00 | 0.00 | 0.00 | 87 | 1011.9 |
| 20260504080817 | 37 | 227 | 0.0 | 0.0 | 0.00 | 0.00 | 0.00 | 87 | 1011.9 |
| 20260504080721 | 37 | 227 | 0.0 | 0.0 | 0.00 | 0.00 | 0.00 | 86 | 1011.9 |
| 20260504080717 | 37 | 227 | 0.0 | 0.0 | 0.00 | 0.00 | 0.00 | 86 | 1011.9 |
| 20260504080521 | 37 | 227 | 0.0 | 0.0 | 0.00 | 0.00 | 0.00 | 86 | 1012.0 |
| 20260504080517 | 37 | 227 | 0.0 | 0.0 | 0.00 | 0.00 | 0.00 | 86 | 1011.9 |
| 20260504080309 | 37 | 227 | 0.0 | 0.0 | 0.00 | 0.00 | 0.00 | 86 | 1011.9 |
| 20260504080302 | 37 | 227 | 0.0 | 0.0 | 0.00 | 0.00 | 0.00 | 86 | 1011.9 |
| 20260504080206 | 37 | 227 | 0.0 | 0.0 | 0.00 | 0.00 | 0.00 | 86 | 1011.9 |
| 20260504080148 | 37 | 227 | 0.0 | 0.0 | 0.00 | 0.00 | 0.00 | 86 | 1011.9 |
| 20260504070235 | 39 | 227 | 0.0 | 0.0 | 0.00 | 0.00 | 0.00 | 79 | 1011.9 |
| 20260504070134 | 39 | 227 | 0.0 | 0.0 | 0.00 | 0.00 | 0.00 | 79 | 1011.9 |
| 20260504060200 | 42 | 227 | 0.0 | 0.0 | 0.00 | 0.00 | 0.00 | 73 | 1011.8 |
| 20260504050640 | 45 | 227 | 0.0 | 0.0 | 0.00 | 0.00 | 0.00 | 63 | 1012.0 |
| 20260504050535 | 45 | 227 | 0.0 | 0.0 | 0.00 | 0.00 | 0.00 | 63 | 1012.0 |
| 20260504050514 | 45 | 227 | 0.0 | 0.0 | 0.00 | 0.00 | 0.00 | 63 | 1011.9 |
| 20260504050438 | 45 | 227 | 0.0 | 0.0 | 0.00 | 0.00 | 0.00 | 63 | 1011.9 |
| 20260504050339 | 45 | 227 | 0.0 | 0.0 | 0.00 | 0.00 | 0.00 | 62 | 1011.9 |
| 20260504050239 | 45 | 227 | 0.0 | 0.0 | 0.00 | 0.00 | 0.00 | 62 | 1011.9 |
| 20260504050139 | 46 | 227 | 0.0 | 0.0 | 0.00 | 0.00 | 0.00 | 61 | 1011.9 |
| 20260504050020 | 46 | 227 | 0.0 | 0.0 | 0.00 | 0.00 | 0.00 | 62 | 1012.0 |
| 20260504050013 | 46 | 227 | 0.0 | 0.0 | 0.00 | 0.00 | 0.00 | 62 | 1011.9 |
| 20260504045938 | 46 | 227 | 0.0 | 0.0 | 0.00 | 0.00 | 0.00 | 61 | 1011.9 |
| 20260504045838 | 46 | 227 | 0.0 | 0.0 | 0.00 | 0.00 | 0.00 | 61 | 1011.9 |
| 20260504045737 | 46 | 227 | 0.0 | 0.0 | 0.00 | 0.00 | 0.00 | 61 | 1011.9 |
| 20260504045634 | 46 | 227 | 0.0 | 0.0 | 0.00 | 0.00 | 0.00 | 61 | 1011.9 |
| 20260504045520 | 46 | 227 | 0.0 | 0.0 | 0.00 | 0.00 | 0.00 | 61 | 1012.0 |
| 20260504045513 | 46 | 227 | 0.0 | 0.0 | 0.00 | 0.00 | 0.00 | 61 | 1011.9 |
| 20260504045447 | 46 | 227 | 0.0 | 0.0 | 0.00 | 0.00 | 0.00 | 60 | 1011.9 |
| 20260504045443 | 46 | 227 | 0.0 | 0.0 | 0.00 | 0.00 | 0.00 | 61 | 1011.9 |
| 20260504045434 | 46 | 227 | 0.0 | 0.0 | 0.00 | 0.00 | 0.00 | 61 | 1011.9 |
| 20260504045320 | 46 | 227 | 0.0 | 0.0 | 0.00 | 0.00 | 0.00 | 60 | 1011.9 |
| 20260504045207 | 46 | 227 | 0.0 | 0.0 | 0.00 | 0.00 | 0.00 | 60 | 1011.9 |
| 20260504045158 | 46 | 227 | 0.0 | 0.0 | 0.00 | 0.00 | 0.00 | 60 | 1011.9 |
| 20260504045020 | 46 | 227 | 0.0 | 0.0 | 0.00 | 0.00 | 0.00 | 60 | 1012.0 |
| 20260504044733 | 47 | 227 | 0.0 | 0.0 | 0.00 | 0.00 | 0.00 | 60 | 1011.9 |
| 20260504044631 | 47 | 227 | 0.0 | 0.0 | 0.00 | 0.00 | 0.00 | 60 | 1011.8 |
| 20260504044531 | 47 | 227 | 0.0 | 0.0 | 0.00 | 0.00 | 0.00 | 60 | 1011.8 |
| 20260504044520 | 47 | 227 | 0.0 | 0.0 | 0.00 | 0.00 | 0.00 | 59 | 1011.9 |
| 20260504044510 | 47 | 227 | 0.0 | 0.0 | 0.00 | 0.00 | 0.00 | 59 | 1011.8 |
| 20260504044431 | 47 | 227 | 0.0 | 0.0 | 0.00 | 0.00 | 0.00 | 59 | 1011.8 |
| 20260504044330 | 47 | 227 | 0.0 | 0.0 | 0.00 | 0.00 | 0.00 | 59 | 1011.8 |
| 20260504044229 | 47 | 227 | 0.0 | 0.0 | 0.00 | 0.00 | 0.00 | 59 | 1011.8 |
| 20260504044128 | 47 | 227 | 0.0 | 0.0 | 0.00 | 0.00 | 0.00 | 59 | 1011.8 |
| 20260504044100 | 47 | 227 | 0.0 | 0.0 | 0.00 | 0.00 | 0.00 | 59 | 1011.8 |
| 20260504044056 | 47 | 227 | 0.0 | 0.0 | 0.00 | 0.00 | 0.00 | 58 | 1011.8 |
| 20260504044051 | 47 | 227 | 0.0 | 0.0 | 0.00 | 0.00 | 0.00 | 58 | 1011.8 |
| 20260504044043 | 47 | 227 | 0.0 | 0.0 | 0.00 | 0.00 | 0.00 | 59 | 1011.8 |
| 20260504044021 | 47 | 227 | 0.0 | 0.0 | 0.00 | 0.00 | 0.00 | 59 | 1011.9 |
| 20260504043724 | 47 | 227 | 0.0 | 0.0 | 0.00 | 0.00 | 0.00 | 57 | 1011.8 |
| 20260504043625 | 47 | 227 | 0.0 | 0.0 | 0.00 | 0.00 | 0.00 | 56 | 1011.8 |
| 20260504043525 | 47 | 227 | 0.0 | 0.0 | 0.00 | 0.00 | 0.00 | 57 | 1011.8 |
| 20260504043520 | 48 | 227 | 0.0 | 0.0 | 0.00 | 0.00 | 0.00 | 56 | 1011.9 |
| 20260504043506 | 47 | 227 | 0.0 | 0.0 | 0.00 | 0.00 | 0.00 | 56 | 1011.8 |
| 20260504043446 | 47 | 227 | 0.0 | 0.0 | 0.00 | 0.00 | 0.00 | 56 | 1011.8 |
| 20260504043333 | 48 | 227 | 0.0 | 0.0 | 0.00 | 0.00 | 0.00 | 56 | 1011.8 |
| 20260504043122 | 48 | 227 | 0.0 | 0.0 | 0.00 | 0.00 | 0.00 | 56 | 1011.8 |
| 20260504043020 | 48 | 227 | 0.0 | 0.0 | 0.00 | 0.00 | 0.00 | 55 | 1011.8 |
| 20260504043007 | 48 | 227 | 0.0 | 0.0 | 0.00 | 0.00 | 0.00 | 55 | 1011.7 |
| 20260504042948 | 48 | 227 | 0.0 | 0.0 | 0.00 | 0.00 | 0.00 | 56 | 1011.8 |
| 20260504042943 | 48 | 227 | 0.0 | 0.0 | 0.00 | 0.00 | 0.00 | 56 | 1011.8 |
| 20260504042939 | 48 | 227 | 0.0 | 0.0 | 0.00 | 0.00 | 0.00 | 56 | 1011.8 |
| 20260504042620 | 48 | 227 | 0.0 | 0.0 | 0.00 | 0.00 | 0.00 | 56 | 1011.8 |
| 20260504042550 | 48 | 227 | 0.0 | 0.0 | 0.00 | 0.00 | 0.00 | 55 | 1011.7 |
| 20260504042546 | 48 | 227 | 0.0 | 0.0 | 0.00 | 0.00 | 0.00 | 56 | 1011.7 |
| 20260504042540 | 48 | 227 | 0.0 | 0.0 | 0.00 | 0.00 | 0.00 | 56 | 1011.8 |
| 20260504042533 | 48 | 227 | 0.0 | 0.0 | 0.00 | 0.00 | 0.00 | 56 | 1011.7 |
| 20260504042520 | 48 | 227 | 0.0 | 0.0 | 0.00 | 0.00 | 0.00 | 56 | 1011.7 |
| 20260504042215 | 48 | 227 | 0.0 | 0.0 | 0.00 | 0.00 | 0.00 | 56 | 1011.7 |
| 20260504042114 | 48 | 227 | 0.0 | 0.0 | 0.00 | 0.00 | 0.00 | 55 | 1011.6 |
| 20260504042020 | 48 | 227 | 0.0 | 0.0 | 0.00 | 0.00 | 0.00 | 55 | 1011.7 |
| 20260504042005 | 48 | 227 | 0.0 | 0.0 | 0.00 | 0.00 | 0.00 | 55 | 1011.7 |
| 20260504041913 | 48 | 227 | 0.0 | 0.0 | 0.00 | 0.00 | 0.00 | 54 | 1011.7 |
| 20260504041813 | 48 | 227 | 0.0 | 0.0 | 0.00 | 0.00 | 0.00 | 54 | 1011.6 |
| 20260504041712 | 48 | 227 | 0.0 | 0.0 | 0.00 | 0.00 | 0.00 | 53 | 1011.6 |
| 20260504041612 | 48 | 227 | 0.0 | 0.0 | 0.00 | 0.00 | 0.00 | 53 | 1011.6 |
| 20260504041529 | 48 | 227 | 0.0 | 0.0 | 0.00 | 0.00 | 0.00 | 54 | 1011.6 |
| 20260504041520 | 48 | 227 | 0.0 | 0.0 | 0.00 | 0.00 | 0.00 | 53 | 1011.6 |
| 20260504041518 | 48 | 227 | 0.0 | 0.0 | 0.00 | 0.00 | 0.00 | 53 | 1011.6 |
| 20260504041310 | 48 | 227 | 0.0 | 0.0 | 0.00 | 0.00 | 0.00 | 53 | 1011.6 |
| 20260504041210 | 48 | 227 | 0.0 | 0.0 | 0.00 | 0.00 | 0.00 | 53 | 1011.5 |
| 20260504041109 | 49 | 227 | 0.0 | 0.0 | 0.00 | 0.00 | 0.00 | 53 | 1011.5 |
| 20260504041020 | 49 | 227 | 0.0 | 0.0 | 0.00 | 0.00 | 0.00 | 53 | 1011.5 |
| 20260504041004 | 49 | 227 | 0.0 | 0.0 | 0.00 | 0.00 | 0.00 | 53 | 1011.5 |
| 20260504040907 | 49 | 227 | 0.0 | 0.0 | 0.00 | 0.00 | 0.00 | 54 | 1011.5 |
| 20260504040807 | 49 | 227 | 0.0 | 0.0 | 0.00 | 0.00 | 0.00 | 54 | 1011.5 |
| 20260504040707 | 49 | 227 | 0.0 | 0.0 | 0.00 | 0.00 | 0.00 | 53 | 1011.5 |
| 20260504040605 | 49 | 227 | 0.0 | 0.0 | 0.00 | 0.00 | 0.00 | 53 | 1011.5 |
| 20260504040520 | 49 | 227 | 0.0 | 0.0 | 0.00 | 0.00 | 0.00 | 53 | 1011.5 |
| 20260504040506 | 49 | 227 | 0.0 | 0.0 | 0.00 | 0.00 | 0.00 | 53 | 1011.5 |
| 20260504040405 | 49 | 227 | 0.0 | 0.0 | 0.00 | 0.00 | 0.00 | 54 | 1011.6 |
| 20260504040304 | 49 | 227 | 0.0 | 0.0 | 0.00 | 0.00 | 0.00 | 53 | 1011.6 |
| 20260504040204 | 49 | 227 | 0.0 | 0.0 | 0.00 | 0.00 | 0.00 | 53 | 1011.5 |
| 20260504040103 | 49 | 227 | 0.0 | 0.0 | 0.00 | 0.00 | 0.00 | 53 | 1011.6 |
| 20260504040020 | 49 | 227 | 0.0 | 0.0 | 0.00 | 0.00 | 0.00 | 53 | 1011.6 |
| 20260504040007 | 49 | 227 | 0.0 | 0.0 | 0.00 | 0.00 | 0.00 | 53 | 1011.6 |
| 20260504040001 | 49 | 227 | 0.0 | 0.0 | 0.00 | 0.00 | 0.00 | 53 | 1011.6 |
| 20260504035902 | 49 | 227 | 0.0 | 0.0 | 0.00 | 0.00 | 0.00 | 53 | 1011.5 |
| 20260504035818 | 49 | 227 | 0.0 | 0.0 | 0.00 | 0.00 | 0.00 | 53 | 1011.6 |
| 20260504035814 | 49 | 227 | 0.0 | 0.0 | 0.00 | 0.00 | 0.00 | 54 | 1011.4 |
| 20260504035810 | 49 | 227 | 0.0 | 0.0 | 0.00 | 0.00 | 0.00 | 53 | 1011.6 |
| 20260504035614 | 49 | 227 | 0.0 | 0.0 | 0.00 | 0.00 | 0.00 | 53 | 1011.5 |
| 20260504035520 | 49 | 227 | 0.0 | 0.0 | 0.00 | 0.00 | 0.00 | 54 | 1011.4 |
| 20260504035459 | 49 | 227 | 0.0 | 0.0 | 0.00 | 0.00 | 0.00 | 54 | 1011.4 |
| 20260504035359 | 49 | 227 | 0.0 | 0.0 | 0.00 | 0.00 | 0.00 | 54 | 1011.4 |
| 20260504035258 | 49 | 227 | 0.0 | 0.0 | 0.00 | 0.00 | 0.00 | 54 | 1011.3 |
| 20260504035157 | 49 | 227 | 0.0 | 0.0 | 0.00 | 0.00 | 0.00 | 55 | 1011.4 |
| 20260504035057 | 49 | 227 | 0.0 | 0.0 | 0.00 | 0.00 | 0.00 | 54 | 1011.4 |
| 20260504035020 | 49 | 227 | 0.0 | 0.0 | 0.00 | 0.00 | 0.00 | 54 | 1011.4 |
| 20260504034956 | 49 | 227 | 0.0 | 0.0 | 0.00 | 0.00 | 0.00 | 54 | 1011.4 |
| 20260504034856 | 49 | 227 | 0.0 | 0.0 | 0.00 | 0.00 | 0.00 | 54 | 1011.4 |
| 20260504034755 | 49 | 227 | 0.0 | 0.0 | 0.00 | 0.00 | 0.00 | 54 | 1011.4 |
| 20260504034654 | 49 | 227 | 0.0 | 0.0 | 0.00 | 0.00 | 0.00 | 53 | 1011.4 |
| 20260504034554 | 49 | 227 | 0.0 | 0.0 | 0.00 | 0.00 | 0.00 | 53 | 1011.4 |
| 20260504034520 | 49 | 227 | 0.0 | 0.0 | 0.00 | 0.00 | 0.00 | 53 | 1011.4 |
| 20260504034453 | 49 | 227 | 0.0 | 0.0 | 0.00 | 0.00 | 0.00 | 53 | 1011.4 |
| 20260504034353 | 49 | 227 | 0.0 | 0.0 | 0.00 | 0.00 | 0.00 | 53 | 1011.4 |
| 20260504034252 | 49 | 227 | 0.0 | 0.0 | 0.00 | 0.00 | 0.00 | 53 | 1011.4 |
| 20260504034151 | 49 | 227 | 0.0 | 0.0 | 0.00 | 0.00 | 0.00 | 53 | 1011.4 |
| 20260504034051 | 49 | 227 | 0.0 | 0.0 | 0.00 | 0.00 | 0.00 | 53 | 1011.3 |
| 20260504034020 | 49 | 227 | 0.0 | 0.0 | 0.00 | 0.00 | 0.00 | 53 | 1011.3 |
| 20260504033950 | 49 | 227 | 0.0 | 0.0 | 0.00 | 0.00 | 0.00 | 53 | 1011.3 |
| 20260504033849 | 49 | 227 | 0.0 | 0.0 | 0.00 | 0.00 | 0.00 | 53 | 1011.3 |
| 20260504033821 | 49 | 227 | 0.0 | 0.0 | 0.00 | 0.00 | 0.00 | 54 | 1011.3 |
| 20260504033750 | 49 | 227 | 0.0 | 0.0 | 0.00 | 0.00 | 0.00 | 53 | 1011.4 |
| 20260504033718 | 49 | 227 | 0.0 | 0.0 | 0.00 | 0.00 | 0.00 | 54 | 1011.3 |
| 20260504033712 | 49 | 227 | 0.0 | 0.0 | 0.00 | 0.00 | 0.00 | 53 | 1011.3 |
| 20260504033703 | 49 | 227 | 0.0 | 0.0 | 0.00 | 0.00 | 0.00 | 53 | 1011.3 |
| 20260504033520 | 49 | 227 | 0.0 | 0.0 | 0.00 | 0.00 | 0.00 | 54 | 1011.3 |
| 20260504033348 | 49 | 227 | 0.0 | 0.0 | 0.00 | 0.00 | 0.00 | 54 | 1011.3 |
| 20260504033248 | 49 | 227 | 0.0 | 0.0 | 0.00 | 0.00 | 0.00 | 55 | 1011.3 |
| 20260504033225 | 49 | 227 | 0.0 | 0.0 | 0.00 | 0.00 | 0.00 | 55 | 1011.3 |
| 20260504033148 | 49 | 227 | 0.0 | 0.0 | 0.00 | 0.00 | 0.00 | 55 | 1011.3 |
| 20260504033107 | 49 | 227 | 0.0 | 0.0 | 0.00 | 0.00 | 0.00 | 55 | 1011.3 |
| 20260504033020 | 49 | 227 | 0.0 | 0.0 | 0.00 | 0.00 | 0.00 | 55 | 1011.3 |
| 20260504032947 | 49 | 227 | 0.0 | 0.0 | 0.00 | 0.00 | 0.00 | 55 | 1011.3 |
| 20260504032845 | 49 | 227 | 0.0 | 0.0 | 0.00 | 0.00 | 0.00 | 55 | 1011.3 |
| 20260504032744 | 49 | 227 | 0.0 | 0.0 | 0.00 | 0.00 | 0.00 | 54 | 1011.3 |
| 20260504032644 | 49 | 227 | 0.0 | 0.0 | 0.00 | 0.00 | 0.00 | 54 | 1011.3 |
| 20260504032543 | 49 | 227 | 0.0 | 0.0 | 0.00 | 0.00 | 0.00 | 54 | 1011.3 |
| 20260504032520 | 49 | 227 | 0.0 | 0.0 | 0.00 | 0.00 | 0.00 | 54 | 1011.3 |
| 20260504032443 | 49 | 227 | 0.0 | 0.0 | 0.00 | 0.00 | 0.00 | 54 | 1011.3 |
| 20260504032343 | 49 | 227 | 0.0 | 0.0 | 0.00 | 0.00 | 0.00 | 54 | 1011.3 |
| 20260504032242 | 49 | 227 | 0.0 | 0.0 | 0.00 | 0.00 | 0.00 | 55 | 1011.3 |
| 20260504032142 | 49 | 227 | 0.0 | 0.0 | 0.00 | 0.00 | 0.00 | 55 | 1011.3 |
| 20260504032056 | 49 | 227 | 0.0 | 0.0 | 0.00 | 0.00 | 0.00 | 55 | 1011.3 |
| 20260504032046 | 49 | 227 | 0.0 | 0.0 | 0.00 | 0.00 | 0.00 | 56 | 1011.3 |
| 20260504032020 | 49 | 227 | 0.0 | 0.0 | 0.00 | 0.00 | 0.00 | 55 | 1011.3 |
| 20260504031841 | 49 | 227 | 0.0 | 0.0 | 0.00 | 0.00 | 0.00 | 57 | 1011.2 |
| 20260504031818 | 49 | 227 | 0.0 | 0.0 | 0.00 | 0.00 | 0.00 | 56 | 1011.3 |
| 20260504031739 | 49 | 227 | 0.0 | 0.0 | 0.00 | 0.00 | 0.00 | 57 | 1011.3 |
| 20260504031715 | 49 | 227 | 0.0 | 0.0 | 0.00 | 0.00 | 0.00 | 56 | 1011.3 |
| 20260504031706 | 49 | 227 | 0.0 | 0.0 | 0.00 | 0.00 | 0.00 | 56 | 1011.3 |
| 20260504031535 | 49 | 227 | 0.0 | 0.0 | 0.00 | 0.00 | 0.00 | 56 | 1011.3 |
| 20260504031447 | 49 | 227 | 0.0 | 0.0 | 0.00 | 0.00 | 0.00 | 56 | 1011.3 |
| 20260504031251 | 49 | 227 | 0.0 | 0.0 | 0.00 | 0.00 | 0.00 | 55 | 1011.2 |
| 20260504031246 | 49 | 227 | 0.0 | 0.0 | 0.00 | 0.00 | 0.00 | 55 | 1011.3 |
| 20260504031037 | 49 | 227 | 0.0 | 0.0 | 0.00 | 0.00 | 0.00 | 54 | 1011.3 |
| 20260504031020 | 49 | 227 | 0.0 | 0.0 | 0.00 | 0.00 | 0.00 | 54 | 1011.2 |
| 20260504030955 | 49 | 227 | 0.0 | 0.0 | 0.00 | 0.00 | 0.00 | 54 | 1011.2 |
| 20260504030949 | 49 | 227 | 0.0 | 0.0 | 0.00 | 0.00 | 0.00 | 54 | 1011.2 |
| 20260504030945 | 49 | 227 | 0.0 | 0.0 | 0.00 | 0.00 | 0.00 | 53 | 1011.2 |
| 20260504030734 | 49 | 227 | 0.0 | 0.0 | 0.00 | 0.00 | 0.00 | 54 | 1011.2 |
| 20260504030634 | 49 | 227 | 0.0 | 0.0 | 0.00 | 0.00 | 0.00 | 54 | 1011.2 |
| 20260504030535 | 49 | 227 | 0.0 | 0.0 | 0.00 | 0.00 | 0.00 | 54 | 1011.2 |
| 20260504030520 | 49 | 227 | 0.0 | 0.0 | 0.00 | 0.00 | 0.00 | 54 | 1011.1 |
| 20260504030433 | 49 | 227 | 0.0 | 0.0 | 0.00 | 0.00 | 0.00 | 54 | 1011.1 |
| 20260504030334 | 49 | 227 | 0.0 | 0.0 | 0.00 | 0.00 | 0.00 | 54 | 1011.2 |
| 20260504030234 | 49 | 227 | 0.0 | 0.0 | 0.00 | 0.00 | 0.00 | 54 | 1011.1 |
| 20260504030216 | 48 | 227 | 0.0 | 0.0 | 0.00 | 0.00 | 0.00 | 54 | 1011.1 |
| 20260504030132 | 49 | 227 | 0.0 | 0.0 | 0.00 | 0.00 | 0.00 | 54 | 1011.1 |
| 20260504030059 | 48 | 227 | 0.0 | 0.0 | 0.00 | 0.00 | 0.00 | 54 | 1011.2 |
| 20260504030020 | 48 | 227 | 0.0 | 0.0 | 0.00 | 0.00 | 0.00 | 54 | 1011.1 |
| 20260504025931 | 48 | 227 | 0.0 | 0.0 | 0.00 | 0.00 | 0.00 | 54 | 1011.1 |
| 20260504025831 | 48 | 227 | 0.0 | 0.0 | 0.00 | 0.00 | 0.00 | 55 | 1011.1 |
| 20260504025729 | 48 | 227 | 0.0 | 0.0 | 0.00 | 0.00 | 0.00 | 54 | 1011.1 |
| 20260504025659 | 48 | 227 | 0.0 | 0.0 | 0.00 | 0.00 | 0.00 | 55 | 1011.1 |
| 20260504025655 | 48 | 227 | 0.0 | 0.0 | 0.00 | 0.00 | 0.00 | 55 | 1011.1 |
| 20260504025649 | 48 | 227 | 0.0 | 0.0 | 0.00 | 0.00 | 0.00 | 54 | 1011.1 |
| 20260504025532 | 48 | 227 | 0.0 | 0.0 | 0.00 | 0.00 | 0.00 | 55 | 1011.1 |
| 20260504025520 | 48 | 227 | 0.0 | 0.0 | 0.00 | 0.00 | 0.00 | 55 | 1011.1 |
| 20260504025325 | 48 | 227 | 0.0 | 0.0 | 0.00 | 0.00 | 0.00 | 55 | 1011.2 |
| 20260504025229 | 48 | 227 | 0.0 | 0.0 | 0.00 | 0.00 | 0.00 | 56 | 1011.1 |
| 20260504025225 | 48 | 227 | 0.0 | 0.0 | 0.00 | 0.00 | 0.00 | 56 | 1011.1 |
| 20260504025212 | 48 | 227 | 0.0 | 0.0 | 0.00 | 0.00 | 0.00 | 56 | 1011.2 |
| 20260504025207 | 48 | 227 | 0.0 | 0.0 | 0.00 | 0.00 | 0.00 | 56 | 1011.2 |
| 20260504025020 | 48 | 227 | 0.0 | 0.0 | 0.00 | 0.00 | 0.00 | 56 | 1011.1 |
| 20260504024923 | 48 | 227 | 0.0 | 0.0 | 0.00 | 0.00 | 0.00 | 56 | 1011.1 |
| 20260504024824 | 48 | 227 | 0.0 | 0.0 | 0.00 | 0.00 | 0.00 | 58 | 1011.2 |
| 20260504024724 | 48 | 227 | 0.0 | 0.0 | 0.00 | 0.00 | 0.00 | 58 | 1011.2 |
| 20260504024622 | 48 | 227 | 0.0 | 0.0 | 0.00 | 0.00 | 0.00 | 57 | 1011.2 |
| 20260504024535 | 48 | 227 | 0.0 | 0.0 | 0.00 | 0.00 | 0.00 | 58 | 1011.2 |
| 20260504024522 | 48 | 227 | 0.0 | 0.0 | 0.00 | 0.00 | 0.00 | 58 | 1011.2 |
| 20260504024421 | 48 | 227 | 0.0 | 0.0 | 0.00 | 0.00 | 0.00 | 57 | 1011.2 |
| 20260504024319 | 48 | 227 | 0.0 | 0.0 | 0.00 | 0.00 | 0.00 | 58 | 1011.2 |
| 20260504024220 | 48 | 227 | 0.0 | 0.0 | 0.00 | 0.00 | 0.00 | 57 | 1011.2 |
| 20260504024120 | 47 | 227 | 0.0 | 0.0 | 0.00 | 0.00 | 0.00 | 57 | 1011.2 |
| 20260504024020 | 47 | 227 | 0.0 | 0.0 | 0.00 | 0.00 | 0.00 | 58 | 1011.3 |
| 20260504023919 | 47 | 227 | 0.0 | 0.0 | 0.00 | 0.00 | 0.00 | 58 | 1011.3 |
| 20260504023817 | 47 | 227 | 0.0 | 0.0 | 0.00 | 0.00 | 0.00 | 59 | 1011.2 |
| 20260504023717 | 47 | 227 | 0.0 | 0.0 | 0.00 | 0.00 | 0.00 | 59 | 1011.2 |
| 20260504023617 | 47 | 227 | 0.0 | 0.0 | 0.00 | 0.00 | 0.00 | 59 | 1011.2 |
| 20260504023520 | 47 | 227 | 0.0 | 0.0 | 0.00 | 0.00 | 0.00 | 60 | 1011.3 |
| 20260504023516 | 47 | 227 | 0.0 | 0.0 | 0.00 | 0.00 | 0.00 | 60 | 1011.2 |
| 20260504023416 | 47 | 227 | 0.0 | 0.0 | 0.00 | 0.00 | 0.00 | 60 | 1011.2 |
| 20260504023315 | 47 | 227 | 0.0 | 0.0 | 0.00 | 0.00 | 0.00 | 61 | 1011.2 |
| 20260504023215 | 47 | 227 | 0.0 | 0.0 | 0.00 | 0.00 | 0.00 | 63 | 1011.2 |
| 20260504023115 | 47 | 227 | 0.0 | 0.0 | 0.00 | 0.00 | 0.00 | 63 | 1011.2 |
| 20260504023020 | 47 | 227 | 0.0 | 0.0 | 0.00 | 0.00 | 0.00 | 63 | 1011.2 |
| 20260504023015 | 47 | 227 | 0.0 | 0.0 | 0.00 | 0.00 | 0.00 | 63 | 1011.2 |
| 20260504022939 | 47 | 227 | 0.0 | 0.0 | 0.00 | 0.00 | 0.00 | 62 | 1011.2 |
| 20260504022935 | 48 | 227 | 0.0 | 0.0 | 0.00 | 0.00 | 0.00 | 62 | 1011.2 |
| 20260504022930 | 47 | 227 | 0.0 | 0.0 | 0.00 | 0.00 | 0.00 | 63 | 1011.2 |
| 20260504022613 | 48 | 227 | 0.0 | 0.0 | 0.00 | 0.00 | 0.00 | 62 | 1011.2 |
| 20260504022520 | 48 | 227 | 0.0 | 0.0 | 0.00 | 0.00 | 0.00 | 62 | 1011.2 |
| 20260504022512 | 48 | 227 | 0.0 | 0.0 | 0.00 | 0.00 | 0.00 | 62 | 1011.2 |
| 20260504022444 | 48 | 227 | 0.0 | 0.0 | 0.00 | 0.00 | 0.00 | 62 | 1011.2 |
| 20260504022412 | 48 | 227 | 0.0 | 0.0 | 0.00 | 0.00 | 0.00 | 62 | 1011.2 |
| 20260504022325 | 48 | 227 | 0.0 | 0.0 | 0.00 | 0.00 | 0.00 | 62 | 1011.2 |
| 20260504022320 | 48 | 227 | 0.0 | 0.0 | 0.00 | 0.00 | 0.00 | 62 | 1011.2 |
| 20260504022109 | 48 | 227 | 0.0 | 0.0 | 0.00 | 0.00 | 0.00 | 62 | 1011.2 |
| 20260504022020 | 48 | 227 | 0.0 | 0.0 | 0.00 | 0.00 | 0.00 | 61 | 1011.1 |
| 20260504022009 | 48 | 227 | 0.0 | 0.0 | 0.00 | 0.00 | 0.00 | 61 | 1011.1 |
| 20260504021944 | 48 | 227 | 0.0 | 0.0 | 0.00 | 0.00 | 0.00 | 61 | 1011.1 |
| 20260504021909 | 48 | 227 | 0.0 | 0.0 | 0.00 | 0.00 | 0.00 | 60 | 1011.1 |
| 20260504021808 | 48 | 227 | 0.0 | 0.0 | 0.00 | 0.00 | 0.00 | 61 | 1011.2 |
| 20260504021708 | 48 | 227 | 0.0 | 0.0 | 0.00 | 0.00 | 0.00 | 60 | 1011.2 |
| 20260504021640 | 48 | 227 | 0.0 | 0.0 | 0.00 | 0.00 | 0.00 | 60 | 1011.3 |
| 20260504021636 | 48 | 227 | 0.0 | 0.0 | 0.00 | 0.00 | 0.00 | 58 | 1011.2 |
| 20260504021630 | 48 | 227 | 0.0 | 0.0 | 0.00 | 0.00 | 0.00 | 61 | 1011.2 |
| 20260504021520 | 48 | 227 | 0.0 | 0.0 | 0.00 | 0.00 | 0.00 | 61 | 1011.3 |
| 20260504021513 | 48 | 227 | 0.0 | 0.0 | 0.00 | 0.00 | 0.00 | 60 | 1011.3 |
| 20260504021318 | 48 | 227 | 0.0 | 0.0 | 0.00 | 0.00 | 0.00 | 57 | 1011.2 |
| 20260504021205 | 49 | 227 | 0.0 | 0.0 | 0.00 | 0.00 | 0.00 | 56 | 1011.2 |
| 20260504021104 | 49 | 227 | 0.0 | 0.0 | 0.00 | 0.00 | 0.00 | 57 | 1011.3 |
| 20260504021052 | 49 | 227 | 0.0 | 0.0 | 0.00 | 0.00 | 0.00 | 57 | 1011.3 |
| 20260504021020 | 49 | 227 | 0.0 | 0.0 | 0.00 | 0.00 | 0.00 | 57 | 1011.3 |
| 20260504020903 | 49 | 227 | 0.0 | 0.0 | 0.00 | 0.00 | 0.00 | 55 | 1011.2 |
| 20260504020802 | 49 | 227 | 0.0 | 0.0 | 0.00 | 0.00 | 0.00 | 54 | 1011.2 |
| 20260504020701 | 49 | 227 | 0.0 | 0.0 | 0.00 | 0.00 | 0.00 | 54 | 1011.2 |
| 20260504020601 | 49 | 227 | 0.0 | 0.0 | 0.00 | 0.00 | 0.00 | 54 | 1011.2 |
| 20260504020520 | 49 | 227 | 0.0 | 0.0 | 0.00 | 0.00 | 0.00 | 54 | 1011.1 |
| 20260504020502 | 48 | 227 | 0.0 | 0.0 | 0.00 | 0.00 | 0.00 | 54 | 1011.1 |
| 20260504020444 | 49 | 227 | 0.0 | 0.0 | 0.00 | 0.00 | 0.00 | 54 | 1011.1 |
| 20260504020400 | 49 | 227 | 0.0 | 0.0 | 0.00 | 0.00 | 0.00 | 54 | 1011.1 |
| 20260504020300 | 49 | 227 | 0.0 | 0.0 | 0.00 | 0.00 | 0.00 | 54 | 1011.1 |
| 20260504020211 | 49 | 227 | 0.0 | 0.0 | 0.00 | 0.00 | 0.00 | 57 | 1011.0 |
| 20260504020206 | 49 | 227 | 0.0 | 0.0 | 0.00 | 0.00 | 0.00 | 55 | 1011.1 |
| 20260504020020 | 49 | 227 | 0.0 | 0.0 | 0.00 | 0.00 | 0.00 | 57 | 1011.0 |
| 20260504020015 | 49 | 227 | 0.0 | 0.0 | 0.00 | 0.00 | 0.00 | 56 | 1011.0 |
| 20260504020009 | 49 | 227 | 0.0 | 0.0 | 0.00 | 0.00 | 0.00 | 57 | 1011.0 |
| 20260504020003 | 49 | 227 | 0.0 | 0.0 | 0.00 | 0.00 | 0.00 | 56 | 1011.0 |
| 20260504015755 | 49 | 227 | 0.0 | 0.0 | 0.00 | 0.00 | 0.00 | 55 | 1011.0 |
| 20260504015655 | 49 | 227 | 0.0 | 0.0 | 0.00 | 0.00 | 0.00 | 55 | 1011.0 |
| 20260504015555 | 49 | 227 | 0.0 | 0.0 | 0.00 | 0.00 | 0.00 | 55 | 1011.0 |
| 20260504015535 | 49 | 227 | 0.0 | 0.0 | 0.00 | 0.00 | 0.00 | 55 | 1011.0 |
| 20260504015443 | 49 | 227 | 0.0 | 0.0 | 0.00 | 0.00 | 0.00 | 55 | 1011.0 |
| 20260504015353 | 49 | 227 | 0.0 | 0.0 | 0.00 | 0.00 | 0.00 | 55 | 1011.0 |
| 20260504015307 | 49 | 227 | 0.0 | 0.0 | 0.00 | 0.00 | 0.00 | 56 | 1011.0 |
| 20260504015304 | 49 | 227 | 0.0 | 0.0 | 0.00 | 0.00 | 0.00 | 56 | 1011.0 |
| 20260504015052 | 49 | 227 | 0.0 | 0.0 | 0.00 | 0.00 | 0.00 | 56 | 1011.0 |
| 20260504015020 | 49 | 227 | 0.0 | 0.0 | 0.00 | 0.00 | 0.00 | 56 | 1011.0 |
| 20260504014942 | 49 | 227 | 0.0 | 0.0 | 0.00 | 0.00 | 0.00 | 56 | 1011.0 |
| 20260504014852 | 49 | 227 | 0.0 | 0.0 | 0.00 | 0.00 | 0.00 | 56 | 1011.0 |
| 20260504014751 | 49 | 227 | 0.0 | 0.0 | 0.00 | 0.00 | 0.00 | 57 | 1011.0 |
| 20260504014650 | 49 | 227 | 0.0 | 0.0 | 0.00 | 0.00 | 0.00 | 57 | 1011.0 |
| 20260504014550 | 49 | 227 | 0.0 | 0.0 | 0.00 | 0.00 | 0.00 | 57 | 1011.0 |
| 20260504014520 | 49 | 227 | 0.0 | 0.0 | 0.00 | 0.00 | 0.00 | 57 | 1011.0 |
| 20260504014443 | 49 | 227 | 0.0 | 0.0 | 0.00 | 0.00 | 0.00 | 57 | 1011.0 |
| 20260504014349 | 49 | 227 | 0.0 | 0.0 | 0.00 | 0.00 | 0.00 | 57 | 1011.0 |
| 20260504014250 | 49 | 227 | 0.0 | 0.0 | 0.00 | 0.00 | 0.00 | 58 | 1011.0 |
| 20260504014149 | 49 | 227 | 0.0 | 0.0 | 0.00 | 0.00 | 0.00 | 57 | 1011.0 |
| 20260504014049 | 49 | 227 | 0.0 | 0.0 | 0.00 | 0.00 | 0.00 | 58 | 1011.0 |
| 20260504014035 | 49 | 227 | 0.0 | 0.0 | 0.00 | 0.00 | 0.00 | 58 | 1010.9 |
| 20260504013941 | 49 | 227 | 0.0 | 0.0 | 0.00 | 0.00 | 0.00 | 59 | 1010.9 |
| 20260504013848 | 49 | 227 | 0.0 | 0.0 | 0.00 | 0.00 | 0.00 | 58 | 1011.0 |
| 20260504013748 | 49 | 227 | 0.0 | 0.0 | 0.00 | 0.00 | 0.00 | 58 | 1011.0 |
| 20260504013648 | 50 | 227 | 0.0 | 0.0 | 0.00 | 0.00 | 0.00 | 58 | 1010.9 |
| 20260504013547 | 50 | 227 | 0.0 | 0.0 | 0.00 | 0.00 | 0.00 | 57 | 1010.9 |
| 20260504013520 | 50 | 227 | 0.0 | 0.0 | 0.00 | 0.00 | 0.00 | 57 | 1010.9 |
| 20260504013440 | 50 | 227 | 0.0 | 0.0 | 0.00 | 0.00 | 0.00 | 57 | 1010.9 |
| 20260504013346 | 50 | 227 | 0.0 | 0.0 | 0.00 | 0.00 | 0.00 | 56 | 1010.9 |
| 20260504013246 | 50 | 227 | 0.0 | 0.0 | 0.00 | 0.00 | 0.00 | 56 | 1010.9 |
| 20260504013146 | 50 | 227 | 0.0 | 0.0 | 0.00 | 0.00 | 0.00 | 56 | 1010.9 |
| 20260504013059 | 50 | 227 | 0.0 | 0.0 | 0.00 | 0.00 | 0.00 | 55 | 1010.9 |
| 20260504013054 | 50 | 227 | 0.0 | 0.0 | 0.00 | 0.00 | 0.00 | 55 | 1010.9 |
| 20260504013020 | 50 | 227 | 0.0 | 0.0 | 0.00 | 0.00 | 0.00 | 56 | 1010.9 |
| 20260504012937 | 50 | 227 | 0.0 | 0.0 | 0.00 | 0.00 | 0.00 | 55 | 1010.9 |
| 20260504012845 | 50 | 227 | 0.0 | 0.0 | 0.00 | 0.00 | 0.00 | 55 | 1010.9 |
| 20260504012758 | 51 | 227 | 0.0 | 0.0 | 0.00 | 0.00 | 0.00 | 55 | 1010.9 |
| 20260504012753 | 50 | 227 | 0.0 | 0.0 | 0.00 | 0.00 | 0.00 | 55 | 1010.9 |
| 20260504012542 | 51 | 227 | 0.0 | 0.0 | 0.00 | 0.00 | 0.00 | 54 | 1010.9 |
| 20260504012520 | 51 | 227 | 0.0 | 0.0 | 0.00 | 0.00 | 0.00 | 54 | 1010.8 |
| 20260504012435 | 51 | 227 | 0.0 | 0.0 | 0.00 | 0.00 | 0.00 | 53 | 1010.8 |
| 20260504012341 | 51 | 227 | 0.0 | 0.0 | 0.00 | 0.00 | 0.00 | 52 | 1010.8 |
| 20260504012241 | 51 | 227 | 0.0 | 0.0 | 0.00 | 0.00 | 0.00 | 51 | 1010.8 |
| 20260504012138 | 51 | 227 | 0.0 | 0.0 | 0.00 | 0.00 | 0.00 | 51 | 1010.8 |
| 20260504012037 | 51 | 227 | 0.0 | 0.0 | 0.00 | 0.00 | 0.00 | 52 | 1010.8 |
| 20260504012020 | 51 | 227 | 0.0 | 0.0 | 0.00 | 0.00 | 0.00 | 53 | 1010.8 |
| 20260504011957 | 51 | 227 | 0.0 | 0.0 | 0.00 | 0.00 | 0.00 | 53 | 1010.8 |
| 20260504011948 | 51 | 227 | 0.0 | 0.0 | 0.00 | 0.00 | 0.00 | 53 | 1010.8 |
| 20260504011736 | 51 | 227 | 0.0 | 0.0 | 0.00 | 0.00 | 0.00 | 52 | 1010.8 |
| 20260504011649 | 52 | 227 | 0.0 | 0.0 | 0.00 | 0.00 | 0.00 | 52 | 1010.8 |
| 20260504011644 | 52 | 227 | 0.0 | 0.0 | 0.00 | 0.00 | 0.00 | 53 | 1010.7 |
| 20260504011520 | 52 | 227 | 0.0 | 0.0 | 0.00 | 0.00 | 0.00 | 52 | 1010.7 |
| 20260504011434 | 52 | 227 | 0.0 | 0.0 | 0.00 | 0.00 | 0.00 | 52 | 1010.7 |
| 20260504011334 | 52 | 227 | 0.0 | 0.0 | 0.00 | 0.00 | 0.00 | 51 | 1010.7 |
| 20260504011234 | 52 | 227 | 0.0 | 0.0 | 0.00 | 0.00 | 0.00 | 50 | 1010.7 |
| 20260504011133 | 52 | 227 | 0.0 | 0.0 | 0.00 | 0.00 | 0.00 | 50 | 1010.7 |
| 20260504011032 | 52 | 227 | 0.0 | 0.0 | 0.00 | 0.00 | 0.00 | 50 | 1010.7 |
| 20260504011020 | 52 | 227 | 0.0 | 0.0 | 0.00 | 0.00 | 0.00 | 49 | 1010.7 |
| 20260504010931 | 52 | 227 | 0.0 | 0.0 | 0.00 | 0.00 | 0.00 | 49 | 1010.7 |
| 20260504010831 | 52 | 0 | 0.0 | 0.0 | 0.00 | 0.00 | 0.00 | 48 | 1010.7 |
| 20260504010731 | 52 | 0 | 0.0 | 0.0 | 0.00 | 0.00 | 0.00 | 47 | 1010.6 |
| 20260504010630 | 53 | 0 | 0.0 | 0.0 | 0.00 | 0.00 | 0.00 | 47 | 1010.6 |
| 20260504010530 | 53 | 0 | 0.0 | 0.0 | 0.00 | 0.00 | 0.00 | 47 | 1010.6 |
| 20260504010520 | 53 | 360 | 0.0 | 0.0 | 0.00 | 0.00 | 0.00 | 47 | 1010.6 |
| 20260504010449 | 53 | 0 | 0.0 | 0.0 | 0.00 | 0.00 | 0.00 | 46 | 1010.6 |
| 20260504010438 | 53 | 0 | 0.0 | 0.0 | 0.00 | 0.00 | 0.00 | 46 | 1010.6 |
| 20260504010230 | 53 | 0 | 0.0 | 0.0 | 0.00 | 0.00 | 0.00 | 45 | 1010.6 |
| 20260504010132 | 53 | 0 | 0.0 | 0.0 | 0.00 | 0.00 | 0.00 | 45 | 1010.6 |
| 20260504010118 | 53 | 0 | 0.0 | 0.0 | 0.00 | 0.00 | 0.00 | 45 | 1010.6 |
| 20260504010111 | 53 | 0 | 0.0 | 0.0 | 0.00 | 0.00 | 0.00 | 45 | 1010.6 |
| 20260504010020 | 53 | 360 | 0.0 | 0.0 | 0.00 | 0.00 | 0.00 | 45 | 1010.6 |
| 20260504005849 | 53 | 0 | 0.0 | 0.0 | 0.00 | 0.00 | 0.00 | 45 | 1010.7 |
| 20260504005736 | 53 | 0 | 0.0 | 0.0 | 0.00 | 0.00 | 0.00 | 44 | 1010.7 |
| 20260504005541 | 53 | 0 | 0.0 | 0.0 | 0.00 | 0.00 | 0.00 | 45 | 1010.6 |
| 20260504005520 | 53 | 360 | 0.0 | 0.0 | 0.00 | 0.00 | 0.00 | 45 | 1010.5 |
| 20260504005426 | 53 | 0 | 0.0 | 0.0 | 0.00 | 0.00 | 0.00 | 44 | 1010.6 |
| 20260504005325 | 53 | 0 | 0.0 | 0.0 | 0.00 | 0.00 | 0.00 | 44 | 1010.6 |
| 20260504005224 | 53 | 0 | 0.0 | 0.0 | 0.00 | 0.00 | 0.00 | 43 | 1010.6 |
| 20260504005125 | 53 | 0 | 0.0 | 0.0 | 0.00 | 0.00 | 0.00 | 44 | 1010.6 |
| 20260504005024 | 53 | 0 | 0.0 | 0.0 | 0.00 | 0.00 | 0.00 | 43 | 1010.5 |
| 20260504005021 | 54 | 360 | 0.0 | 0.0 | 0.00 | 0.00 | 0.00 | 43 | 1010.4 |
| 20260504004924 | 54 | 0 | 0.0 | 0.0 | 0.00 | 0.00 | 0.00 | 43 | 1010.5 |
| 20260504004848 | 54 | 0 | 0.0 | 0.0 | 0.00 | 0.00 | 0.00 | 43 | 1010.5 |
| 20260504004844 | 54 | 0 | 0.0 | 0.0 | 0.00 | 0.00 | 0.00 | 43 | 1010.5 |
| 20260504004839 | 54 | 0 | 0.0 | 0.0 | 0.00 | 0.00 | 0.00 | 43 | 1010.5 |
| 20260504004535 | 54 | 0 | 0.0 | 0.0 | 0.00 | 0.00 | 0.00 | 43 | 1010.5 |
| 20260504004527 | 54 | 0 | 0.0 | 0.0 | 0.00 | 0.00 | 0.00 | 42 | 1010.5 |
| 20260504004520 | 54 | 360 | 0.0 | 0.0 | 0.00 | 0.00 | 0.00 | 43 | 1010.4 |
| 20260504004319 | 54 | 0 | 0.0 | 0.0 | 0.00 | 0.00 | 0.00 | 42 | 1010.5 |
| 20260504004219 | 54 | 0 | 0.0 | 0.0 | 0.00 | 0.00 | 0.00 | 42 | 1010.5 |
| 20260504004118 | 54 | 0 | 0.0 | 0.0 | 0.00 | 0.00 | 0.00 | 42 | 1010.5 |
| 20260504004021 | 54 | 360 | 0.0 | 0.0 | 0.00 | 0.00 | 0.00 | 42 | 1010.4 |
| 20260504004018 | 54 | 0 | 0.0 | 0.0 | 0.00 | 0.00 | 0.00 | 42 | 1010.4 |
| 20260504003918 | 54 | 0 | 0.0 | 0.0 | 0.00 | 0.00 | 0.00 | 42 | 1010.5 |
| 20260504003844 | 55 | 0 | 0.0 | 0.0 | 0.00 | 0.00 | 0.00 | 42 | 1010.4 |
| 20260504003840 | 55 | 0 | 0.0 | 0.0 | 0.00 | 0.00 | 0.00 | 42 | 1010.4 |
| 20260504003835 | 55 | 0 | 0.0 | 0.0 | 0.00 | 0.00 | 0.00 | 42 | 1010.4 |
| 20260504003528 | 55 | 0 | 0.0 | 0.0 | 0.00 | 0.00 | 0.00 | 42 | 1010.4 |
| 20260504003520 | 55 | 360 | 0.0 | 0.0 | 0.00 | 0.00 | 0.00 | 42 | 1010.3 |
| 20260504003312 | 55 | 0 | 0.0 | 0.0 | 0.00 | 0.00 | 0.00 | 41 | 1010.3 |
| 20260504003212 | 55 | 0 | 0.0 | 0.0 | 0.00 | 0.00 | 0.00 | 41 | 1010.3 |
| 20260504003111 | 55 | 0 | 0.0 | 0.0 | 0.00 | 0.00 | 0.00 | 41 | 1010.3 |
| 20260504003020 | 55 | 360 | 0.0 | 0.0 | 0.00 | 0.00 | 0.00 | 40 | 1010.2 |
| 20260504003011 | 55 | 0 | 0.0 | 0.0 | 0.00 | 0.00 | 0.00 | 40 | 1010.3 |
| 20260504002910 | 55 | 0 | 0.0 | 0.0 | 0.00 | 0.00 | 0.00 | 40 | 1010.3 |
| 20260504002809 | 55 | 0 | 0.0 | 0.0 | 0.00 | 0.00 | 0.00 | 40 | 1010.2 |
| 20260504002709 | 55 | 0 | 0.0 | 0.0 | 0.00 | 0.00 | 0.00 | 40 | 1010.2 |
| 20260504002649 | 56 | 0 | 0.0 | 0.0 | 0.00 | 0.00 | 0.00 | 40 | 1010.2 |
| 20260504002606 | 56 | 0 | 0.0 | 0.0 | 0.00 | 0.00 | 0.00 | 40 | 1010.3 |
| 20260504002534 | 56 | 0 | 0.0 | 0.0 | 0.00 | 0.00 | 0.00 | 40 | 1010.2 |
| 20260504002521 | 56 | 360 | 0.0 | 0.0 | 0.00 | 0.00 | 0.00 | 40 | 1010.1 |
| 20260504002416 | 56 | 0 | 0.0 | 0.0 | 0.00 | 0.00 | 0.00 | 39 | 1010.2 |
| 20260504002411 | 56 | 0 | 0.0 | 0.0 | 0.00 | 0.00 | 0.00 | 40 | 1010.2 |
| 20260504002203 | 56 | 0 | 0.0 | 0.0 | 0.00 | 0.00 | 0.00 | 39 | 1010.2 |
| 20260504002102 | 56 | 0 | 0.0 | 0.0 | 0.00 | 0.00 | 0.00 | 39 | 1010.2 |
| 20260504002020 | 56 | 360 | 0.0 | 0.0 | 0.00 | 0.00 | 0.00 | 39 | 1010.1 |
| 20260504002003 | 56 | 0 | 0.0 | 0.0 | 0.00 | 0.00 | 0.00 | 39 | 1010.2 |
| 20260504001925 | 56 | 0 | 0.0 | 0.0 | 0.00 | 0.00 | 0.00 | 39 | 1010.2 |
| 20260504001902 | 56 | 0 | 0.0 | 0.0 | 0.00 | 0.00 | 0.00 | 39 | 1010.2 |
| 20260504001801 | 56 | 0 | 0.0 | 0.0 | 0.00 | 0.00 | 0.00 | 39 | 1010.2 |
| 20260504001702 | 56 | 0 | 0.0 | 0.0 | 0.00 | 0.00 | 0.00 | 39 | 1010.2 |
| 20260504001602 | 56 | 0 | 0.0 | 0.0 | 0.00 | 0.00 | 0.00 | 39 | 1010.2 |
| 20260504001520 | 56 | 360 | 0.0 | 0.0 | 0.00 | 0.00 | 0.00 | 39 | 1010.1 |
| 20260504001502 | 56 | 0 | 0.0 | 0.0 | 0.00 | 0.00 | 0.00 | 39 | 1010.2 |
| 20260504001424 | 56 | 0 | 0.0 | 0.0 | 0.00 | 0.00 | 0.00 | 39 | 1010.2 |
| 20260504001400 | 56 | 0 | 0.0 | 0.0 | 0.00 | 0.00 | 0.00 | 39 | 1010.1 |
| 20260504001300 | 56 | 0 | 0.0 | 0.0 | 0.00 | 0.00 | 0.00 | 38 | 1010.1 |
| 20260504001200 | 56 | 0 | 0.0 | 0.0 | 0.00 | 0.00 | 0.00 | 38 | 1010.1 |
| 20260504001059 | 56 | 0 | 0.0 | 0.0 | 0.00 | 0.00 | 0.00 | 38 | 1010.1 |
| 20260504001020 | 57 | 360 | 0.0 | 0.0 | 0.00 | 0.00 | 0.00 | 38 | 1010.0 |
| 20260504000959 | 56 | 0 | 0.0 | 0.0 | 0.00 | 0.00 | 0.00 | 38 | 1010.1 |
| 20260504000923 | 56 | 0 | 0.0 | 0.0 | 0.00 | 0.00 | 0.00 | 38 | 1010.1 |
| 20260504000858 | 57 | 0 | 0.0 | 0.0 | 0.00 | 0.00 | 0.00 | 38 | 1010.1 |
| 20260504000758 | 57 | 0 | 0.0 | 0.0 | 0.00 | 0.00 | 0.00 | 38 | 1010.0 |
| 20260504000657 | 57 | 0 | 0.0 | 0.0 | 0.00 | 0.00 | 0.00 | 37 | 1010.1 |
| 20260504000556 | 57 | 0 | 0.0 | 0.0 | 0.00 | 0.00 | 0.00 | 38 | 1010.0 |
| 20260504000520 | 57 | 360 | 0.0 | 0.0 | 0.00 | 0.00 | 0.00 | 38 | 1009.9 |
| 20260504000456 | 57 | 0 | 0.0 | 0.0 | 0.00 | 0.00 | 0.00 | 38 | 1010.0 |
| 20260504000423 | 57 | 0 | 0.0 | 0.0 | 0.00 | 0.00 | 0.00 | 38 | 1010.0 |
| 20260504000417 | 57 | 0 | 0.0 | 0.0 | 0.00 | 0.00 | 0.00 | 38 | 1010.0 |
| 20260504000303 | 57 | 0 | 0.0 | 0.0 | 0.00 | 0.00 | 0.00 | 38 | 1010.0 |
| 20260504000108 | 57 | 0 | 0.0 | 0.0 | 0.00 | 0.00 | 0.00 | 38 | 1010.0 |
| 20260504000103 | 57 | 0 | 0.0 | 0.0 | 0.00 | 0.00 | 0.00 | 38 | 1010.0 |
| 20260504000020 | 57 | 360 | 0.0 | 0.0 | 0.00 | 0.00 | 0.00 | 38 | 1009.9 |
| 20260503235922 | 57 | 0 | 0.0 | 0.0 | 0.00 | 0.00 | 0.00 | 38 | 1010.0 |
| 20260503235914 | 57 | 0 | 0.0 | 0.0 | 0.00 | 0.00 | 0.00 | 38 | 1010.0 |
| 20260503235800 | 57 | 0 | 0.0 | 0.0 | 0.00 | 0.00 | 0.00 | 38 | 1009.9 |
| 20260503235551 | 57 | 0 | 0.0 | 0.0 | 0.00 | 0.00 | 0.00 | 37 | 1009.9 |
| 20260503235520 | 57 | 360 | 0.0 | 0.0 | 0.00 | 0.00 | 0.00 | 37 | 1009.8 |
| 20260503235509 | 57 | 0 | 0.0 | 0.9 | 0.00 | 0.00 | 0.00 | 37 | 1009.9 |
| 20260503235457 | 57 | 0 | 0.0 | 0.9 | 0.00 | 0.00 | 0.00 | 37 | 1009.9 |
| 20260503235249 | 57 | 0 | 0.0 | 0.9 | 0.00 | 0.00 | 0.00 | 38 | 1009.9 |
| 20260503235149 | 58 | 0 | 0.0 | 0.9 | 0.00 | 0.00 | 0.00 | 37 | 1009.8 |
| 20260503235048 | 58 | 0 | 0.0 | 0.9 | 0.00 | 0.00 | 0.00 | 38 | 1009.8 |
| 20260503235020 | 58 | 360 | 0.0 | 0.0 | 0.00 | 0.00 | 0.00 | 38 | 1009.7 |
| 20260503235006 | 58 | 0 | 0.0 | 0.9 | 0.00 | 0.00 | 0.00 | 37 | 1009.8 |
| 20260503234954 | 58 | 0 | 0.0 | 0.9 | 0.00 | 0.00 | 0.00 | 38 | 1009.8 |
| 20260503234747 | 58 | 0 | 0.0 | 0.9 | 0.00 | 0.00 | 0.00 | 37 | 1009.8 |
| 20260503234646 | 58 | 0 | 0.0 | 0.9 | 0.00 | 0.00 | 0.00 | 37 | 1009.8 |
| 20260503234559 | 58 | 0 | 0.0 | 0.0 | 0.00 | 0.00 | 0.00 | 36 | 1009.8 |
| 20260503234555 | 58 | 0 | 0.0 | 0.9 | 0.00 | 0.00 | 0.00 | 37 | 1009.8 |
| 20260503234520 | 58 | 360 | 0.0 | 0.0 | 0.00 | 0.00 | 0.00 | 37 | 1009.7 |
| 20260503234416 | 58 | 0 | 0.0 | 0.0 | 0.00 | 0.00 | 0.00 | 36 | 1009.8 |
| 20260503234358 | 58 | 0 | 0.0 | 0.0 | 0.00 | 0.00 | 0.00 | 36 | 1009.7 |
| 20260503234354 | 58 | 0 | 0.0 | 0.0 | 0.00 | 0.00 | 0.00 | 37 | 1009.8 |
| 20260503234201 | 58 | 0 | 0.0 | 1.7 | 0.00 | 0.00 | 0.00 | 36 | 1009.8 |
| 20260503234157 | 58 | 0 | 0.0 | 1.7 | 0.00 | 0.00 | 0.00 | 37 | 1009.7 |
| 20260503234153 | 58 | 0 | 0.0 | 0.0 | 0.00 | 0.00 | 0.00 | 36 | 1009.7 |
| 20260503234023 | 58 | 0 | 0.0 | 1.7 | 0.00 | 0.00 | 0.00 | 36 | 1009.7 |
| 20260503234020 | 58 | 360 | 0.0 | 1.7 | 0.00 | 0.00 | 0.00 | 36 | 1009.6 |
| 20260503233842 | 58 | 0 | 0.0 | 1.7 | 0.00 | 0.00 | 0.00 | 37 | 1009.8 |
| 20260503233742 | 58 | 0 | 0.0 | 1.7 | 0.00 | 0.00 | 0.00 | 36 | 1009.7 |
| 20260503233642 | 58 | 0 | 0.0 | 1.7 | 0.00 | 0.00 | 0.00 | 36 | 1009.7 |
| 20260503233542 | 58 | 0 | 0.0 | 1.7 | 0.00 | 0.00 | 0.00 | 35 | 1009.7 |
| 20260503233520 | 59 | 360 | 0.0 | 1.7 | 0.00 | 0.00 | 0.00 | 36 | 1009.6 |
| 20260503233414 | 58 | 0 | 0.0 | 1.7 | 0.00 | 0.00 | 0.00 | 36 | 1009.7 |
| 20260503233408 | 59 | 0 | 0.0 | 1.7 | 0.00 | 0.00 | 0.00 | 36 | 1009.8 |
| 20260503233402 | 59 | 0 | 0.0 | 2.6 | 0.00 | 0.00 | 0.00 | 36 | 1009.8 |
| 20260503233358 | 58 | 0 | 0.0 | 1.7 | 0.00 | 0.00 | 0.00 | 36 | 1009.7 |
| 20260503233039 | 59 | 0 | 0.0 | 3.5 | 0.00 | 0.00 | 0.00 | 36 | 1009.8 |
| 20260503233035 | 59 | 360 | 0.0 | 3.5 | 0.00 | 0.00 | 0.00 | 36 | 1009.6 |
| 20260503232939 | 59 | 0 | 0.0 | 3.5 | 0.00 | 0.00 | 0.00 | 36 | 1009.8 |
| 20260503232913 | 59 | 0 | 0.0 | 3.5 | 0.00 | 0.00 | 0.00 | 35 | 1009.7 |
| 20260503232838 | 59 | 0 | 0.0 | 3.5 | 0.00 | 0.00 | 0.00 | 35 | 1009.7 |
| 20260503232737 | 59 | 0 | 0.0 | 3.5 | 0.00 | 0.00 | 0.00 | 35 | 1009.7 |
| 20260503232638 | 59 | 0 | 0.0 | 3.5 | 0.00 | 0.00 | 0.00 | 35 | 1009.8 |
| 20260503232537 | 59 | 0 | 0.0 | 3.5 | 0.00 | 0.00 | 0.00 | 35 | 1009.8 |
| 20260503232520 | 59 | 360 | 0.0 | 3.5 | 0.00 | 0.00 | 0.00 | 35 | 1009.6 |
| 20260503232413 | 59 | 0 | 0.0 | 3.5 | 0.00 | 0.00 | 0.00 | 34 | 1009.8 |
| 20260503232336 | 59 | 0 | 0.0 | 3.5 | 0.00 | 0.00 | 0.00 | 34 | 1009.8 |
| 20260503232236 | 59 | 0 | 0.0 | 3.5 | 0.00 | 0.00 | 0.00 | 34 | 1009.7 |
| 20260503232135 | 59 | 0 | 0.0 | 3.5 | 0.00 | 0.00 | 0.00 | 35 | 1009.7 |
| 20260503232035 | 59 | 0 | 0.0 | 1.7 | 0.00 | 0.00 | 0.00 | 35 | 1009.7 |
| 20260503232020 | 59 | 360 | 0.0 | 1.7 | 0.00 | 0.00 | 0.00 | 35 | 1009.5 |
| 20260503231913 | 59 | 0 | 0.0 | 1.7 | 0.00 | 0.00 | 0.00 | 34 | 1009.7 |
| 20260503231834 | 59 | 0 | 0.0 | 1.7 | 0.00 | 0.00 | 0.00 | 34 | 1009.7 |
| 20260503231733 | 59 | 0 | 0.0 | 1.7 | 0.00 | 0.00 | 0.00 | 34 | 1009.8 |
| 20260503231633 | 59 | 0 | 0.0 | 1.7 | 0.00 | 0.00 | 0.00 | 35 | 1009.7 |
| 20260503231535 | 59 | 360 | 0.0 | 1.7 | 0.00 | 0.00 | 0.00 | 34 | 1009.5 |
| 20260503231533 | 59 | 0 | 0.0 | 1.7 | 0.00 | 0.00 | 0.00 | 34 | 1009.7 |
| 20260503231413 | 59 | 0 | 0.0 | 1.7 | 0.00 | 0.00 | 0.00 | 34 | 1009.7 |
| 20260503231345 | 60 | 0 | 0.0 | 1.7 | 0.00 | 0.00 | 0.00 | 34 | 1009.7 |
| 20260503231341 | 59 | 0 | 0.0 | 1.7 | 0.00 | 0.00 | 0.00 | 34 | 1009.7 |
| 20260503231130 | 60 | 0 | 0.0 | 1.7 | 0.00 | 0.00 | 0.00 | 33 | 1009.7 |
| 20260503231030 | 60 | 0 | 0.0 | 1.7 | 0.00 | 0.00 | 0.00 | 34 | 1009.7 |
| 20260503231020 | 60 | 360 | 0.0 | 0.9 | 0.00 | 0.00 | 0.00 | 34 | 1009.5 |
| 20260503230911 | 60 | 0 | 0.0 | 0.9 | 0.00 | 0.00 | 0.00 | 34 | 1009.7 |
| 20260503230829 | 60 | 0 | 0.0 | 1.7 | 0.00 | 0.00 | 0.00 | 35 | 1009.7 |
| 20260503230729 | 60 | 0 | 0.0 | 1.7 | 0.00 | 0.00 | 0.00 | 34 | 1009.7 |
| 20260503230628 | 60 | 0 | 0.0 | 3.5 | 0.00 | 0.00 | 0.00 | 34 | 1009.7 |
| 20260503230600 | 60 | 0 | 0.0 | 3.5 | 0.00 | 0.00 | 0.00 | 33 | 1009.7 |
| 20260503230556 | 60 | 0 | 0.0 | 3.5 | 0.00 | 0.00 | 0.00 | 33 | 1009.7 |
| 20260503230551 | 60 | 0 | 0.0 | 3.5 | 0.00 | 0.00 | 0.00 | 33 | 1009.7 |
| 20260503230520 | 60 | 360 | 0.0 | 3.5 | 0.00 | 0.00 | 0.00 | 33 | 1009.5 |
| 20260503230434 | 60 | 0 | 0.0 | 3.5 | 0.00 | 0.00 | 0.00 | 33 | 1009.7 |
| 20260503230227 | 60 | 0 | 0.0 | 7.0 | 0.00 | 0.00 | 0.00 | 33 | 1009.7 |
| 20260503230126 | 60 | 0 | 0.0 | 7.0 | 0.00 | 0.00 | 0.00 | 33 | 1009.7 |
| 20260503230039 | 60 | 0 | 0.0 | 7.0 | 0.00 | 0.00 | 0.00 | 32 | 1009.6 |
| 20260503230035 | 60 | 0 | 0.0 | 7.0 | 0.00 | 0.00 | 0.00 | 33 | 1009.6 |
| 20260503230020 | 60 | 360 | 0.0 | 7.0 | 0.00 | 0.00 | 0.00 | 33 | 1009.4 |
| 20260503225911 | 60 | 0 | 0.0 | 7.0 | 0.00 | 0.00 | 0.00 | 32 | 1009.6 |
| 20260503225824 | 60 | 0 | 0.0 | 7.0 | 0.00 | 0.00 | 0.00 | 33 | 1009.6 |
| 20260503225723 | 60 | 0 | 0.0 | 7.0 | 0.00 | 0.00 | 0.00 | 34 | 1009.6 |
| 20260503225622 | 60 | 0 | 0.0 | 7.0 | 0.00 | 0.00 | 0.00 | 33 | 1009.6 |
| 20260503225522 | 61 | 0 | 0.0 | 7.0 | 0.00 | 0.00 | 0.00 | 33 | 1009.6 |
| 20260503225520 | 61 | 360 | 1.7 | 7.0 | 0.00 | 0.00 | 0.00 | 32 | 1009.4 |
| 20260503225411 | 61 | 0 | 0.0 | 7.0 | 0.00 | 0.00 | 0.00 | 33 | 1009.6 |
| 20260503225321 | 61 | 0 | 0.0 | 7.0 | 0.00 | 0.00 | 0.00 | 33 | 1009.6 |
| 20260503225219 | 61 | 0 | 0.0 | 7.0 | 0.00 | 0.00 | 0.00 | 33 | 1009.6 |
| 20260503225147 | 61 | 0 | 0.0 | 7.0 | 0.00 | 0.00 | 0.00 | 33 | 1009.6 |
| 20260503225143 | 61 | 0 | 0.0 | 7.0 | 0.00 | 0.00 | 0.00 | 32 | 1009.6 |
| 20260503225137 | 61 | 0 | 0.0 | 7.0 | 0.00 | 0.00 | 0.00 | 32 | 1009.6 |
| 20260503225020 | 61 | 360 | 0.0 | 7.0 | 0.00 | 0.00 | 0.00 | 33 | 1009.4 |
| 20260503224908 | 61 | 0 | 0.0 | 7.0 | 0.00 | 0.00 | 0.00 | 33 | 1009.6 |
| 20260503224831 | 61 | 0 | 0.0 | 7.0 | 0.00 | 0.00 | 0.00 | 33 | 1009.6 |
| 20260503224827 | 61 | 0 | 0.0 | 7.0 | 0.00 | 0.00 | 0.00 | 32 | 1009.6 |
| 20260503224631 | 61 | 0 | 0.0 | 2.6 | 0.00 | 0.00 | 0.00 | 32 | 1009.6 |
| 20260503224617 | 61 | 0 | 0.0 | 2.6 | 0.00 | 0.00 | 0.00 | 32 | 1009.6 |
| 20260503224526 | 61 | 0 | 0.0 | 2.6 | 0.00 | 0.00 | 0.00 | 32 | 1009.6 |
| 20260503224520 | 61 | 360 | 0.0 | 2.6 | 0.00 | 0.00 | 0.00 | 32 | 1009.4 |
| 20260503224517 | 61 | 0 | 0.0 | 2.6 | 0.00 | 0.00 | 0.00 | 32 | 1009.6 |
| 20260503224315 | 61 | 0 | 0.0 | 2.6 | 0.00 | 0.00 | 0.00 | 32 | 1009.7 |
| 20260503224215 | 61 | 0 | 0.0 | 2.6 | 0.00 | 0.00 | 0.00 | 33 | 1009.6 |
| 20260503224128 | 61 | 0 | 0.0 | 2.6 | 0.00 | 0.00 | 0.00 | 32 | 1009.7 |
| 20260503224124 | 61 | 0 | 0.0 | 2.6 | 0.00 | 0.00 | 0.00 | 31 | 1009.7 |
| 20260503224051 | 61 | 360 | 0.0 | 2.6 | 0.00 | 0.00 | 0.00 | 32 | 1009.5 |
| 20260503223908 | 61 | 0 | 0.0 | 2.6 | 0.00 | 0.00 | 0.00 | 31 | 1009.7 |
| 20260503223827 | 61 | 0 | 0.0 | 2.6 | 0.00 | 0.00 | 0.00 | 31 | 1009.7 |
| 20260503223823 | 61 | 0 | 0.0 | 2.6 | 0.00 | 0.00 | 0.00 | 31 | 1009.7 |
| 20260503223627 | 61 | 0 | 0.0 | 3.5 | 0.00 | 0.00 | 0.00 | 31 | 1009.6 |
| 20260503223623 | 61 | 0 | 0.0 | 3.5 | 0.00 | 0.00 | 0.00 | 31 | 1009.7 |
| 20260503223521 | 61 | 360 | 0.0 | 3.5 | 0.00 | 0.00 | 0.00 | 31 | 1009.4 |
| 20260503223408 | 61 | 0 | 0.0 | 3.5 | 0.00 | 0.00 | 0.00 | 32 | 1009.7 |
| 20260503223313 | 61 | 0 | 0.0 | 5.2 | 0.00 | 0.00 | 0.00 | 32 | 1009.6 |
| 20260503223243 | 61 | 0 | 0.0 | 5.2 | 0.00 | 0.00 | 0.00 | 32 | 1009.7 |
| 20260503223112 | 61 | 0 | 0.0 | 9.6 | 0.00 | 0.00 | 0.00 | 32 | 1009.7 |
| 20260503223024 | 61 | 0 | 0.0 | 9.6 | 0.00 | 0.00 | 0.00 | 32 | 1009.7 |
| 20260503223021 | 61 | 360 | 0.0 | 9.6 | 0.00 | 0.00 | 0.00 | 32 | 1009.5 |
| 20260503223015 | 61 | 0 | 0.0 | 9.6 | 0.00 | 0.00 | 0.00 | 32 | 1009.6 |
| 20260503222822 | 61 | 0 | 0.0 | 9.6 | 0.00 | 0.00 | 0.00 | 31 | 1009.6 |
| 20260503222818 | 61 | 0 | 0.0 | 9.6 | 0.00 | 0.00 | 0.00 | 32 | 1009.6 |
| 20260503222609 | 62 | 0 | 0.0 | 9.6 | 0.00 | 0.00 | 0.00 | 31 | 1009.6 |
| 20260503222535 | 62 | 360 | 0.0 | 9.6 | 0.00 | 0.00 | 0.00 | 31 | 1009.4 |
| 20260503222506 | 62 | 0 | 0.0 | 9.6 | 0.00 | 0.00 | 0.00 | 31 | 1009.6 |
| 20260503222425 | 62 | 0 | 0.0 | 9.6 | 0.00 | 0.00 | 0.00 | 31 | 1009.6 |
| 20260503222416 | 62 | 0 | 0.0 | 9.6 | 0.00 | 0.00 | 0.00 | 32 | 1009.6 |
| 20260503222205 | 62 | 248 | 0.0 | 9.6 | 0.00 | 0.00 | 0.00 | 31 | 1009.6 |
| 20260503222104 | 62 | 265 | 0.0 | 12.2 | 0.00 | 0.00 | 0.00 | 31 | 1009.5 |
| 20260503222020 | 62 | 290 | 0.0 | 12.2 | 0.00 | 0.00 | 0.00 | 31 | 1009.4 |
| 20260503222004 | 62 | 288 | 0.0 | 12.2 | 0.00 | 0.00 | 0.00 | 31 | 1009.6 |
| 20260503221905 | 62 | 246 | 0.0 | 12.2 | 0.00 | 0.00 | 0.00 | 31 | 1009.5 |
| 20260503221803 | 62 | 236 | 0.0 | 12.2 | 0.00 | 0.00 | 0.00 | 31 | 1009.5 |
| 20260503221703 | 62 | 225 | 0.0 | 12.2 | 0.00 | 0.00 | 0.00 | 31 | 1009.5 |
| 20260503221602 | 62 | 0 | 0.0 | 12.2 | 0.00 | 0.00 | 0.00 | 32 | 1009.5 |
| 20260503221520 | 62 | 360 | 0.0 | 12.2 | 0.00 | 0.00 | 0.00 | 32 | 1009.2 |
| 20260503221501 | 62 | 0 | 0.0 | 12.2 | 0.00 | 0.00 | 0.00 | 31 | 1009.4 |
| 20260503221406 | 62 | 0 | 0.0 | 12.2 | 0.00 | 0.00 | 0.00 | 31 | 1009.5 |
| 20260503221400 | 62 | 0 | 0.0 | 12.2 | 0.00 | 0.00 | 0.00 | 31 | 1009.5 |
| 20260503221300 | 62 | 0 | 0.0 | 12.2 | 0.00 | 0.00 | 0.00 | 30 | 1009.5 |
| 20260503221200 | 62 | 0 | 0.0 | 12.2 | 0.00 | 0.00 | 0.00 | 30 | 1009.5 |
| 20260503221059 | 62 | 268 | 0.0 | 7.8 | 0.00 | 0.00 | 0.00 | 30 | 1009.5 |
| 20260503221035 | 62 | 237 | 0.0 | 7.8 | 0.00 | 0.00 | 0.00 | 31 | 1009.2 |
| 20260503220958 | 62 | 248 | 0.0 | 7.8 | 0.00 | 0.00 | 0.00 | 31 | 1009.4 |
| 20260503220904 | 62 | 223 | 0.0 | 7.0 | 0.00 | 0.00 | 0.00 | 31 | 1009.5 |
| 20260503220859 | 62 | 221 | 0.0 | 7.0 | 0.00 | 0.00 | 0.00 | 31 | 1009.5 |
| 20260503220757 | 62 | 263 | 0.0 | 7.0 | 0.00 | 0.00 | 0.00 | 31 | 1009.5 |
| 20260503220657 | 62 | 0 | 0.0 | 7.0 | 0.00 | 0.00 | 0.00 | 31 | 1009.5 |
| 20260503220556 | 62 | 0 | 0.0 | 7.0 | 0.00 | 0.00 | 0.00 | 30 | 1009.5 |
| 20260503220535 | 62 | 360 | 0.0 | 7.0 | 0.00 | 0.00 | 0.00 | 30 | 1009.3 |
| 20260503220456 | 62 | 0 | 0.0 | 7.0 | 0.00 | 0.00 | 0.00 | 30 | 1009.5 |
| 20260503220401 | 62 | 0 | 0.0 | 7.0 | 0.00 | 0.00 | 0.00 | 30 | 1009.5 |
| 20260503220356 | 62 | 0 | 0.0 | 7.0 | 0.00 | 0.00 | 0.00 | 31 | 1009.5 |
| 20260503220253 | 62 | 0 | 0.0 | 7.0 | 0.00 | 0.00 | 0.00 | 31 | 1009.5 |
| 20260503220153 | 62 | 0 | 0.0 | 7.0 | 0.00 | 0.00 | 0.00 | 31 | 1009.5 |
| 20260503220053 | 62 | 0 | 0.0 | 5.2 | 0.00 | 0.00 | 0.00 | 31 | 1009.6 |
| 20260503220020 | 62 | 360 | 0.0 | 12.2 | 0.00 | 0.00 | 0.00 | 32 | 1009.4 |
| 20260503215951 | 62 | 0 | 0.9 | 13.0 | 0.00 | 0.00 | 0.00 | 32 | 1009.6 |
| 20260503215858 | 62 | 0 | 0.9 | 13.0 | 0.00 | 0.00 | 0.00 | 32 | 1009.5 |
| 20260503215850 | 62 | 0 | 0.9 | 13.0 | 0.00 | 0.00 | 0.00 | 31 | 1009.5 |
| 20260503215749 | 62 | 0 | 0.9 | 13.0 | 0.00 | 0.00 | 0.00 | 30 | 1009.5 |
| 20260503215649 | 62 | 0 | 0.9 | 13.0 | 0.00 | 0.00 | 0.00 | 31 | 1009.5 |
| 20260503215549 | 62 | 0 | 0.9 | 13.0 | 0.00 | 0.00 | 0.00 | 31 | 1009.5 |
| 20260503215520 | 62 | 360 | 0.0 | 13.0 | 0.00 | 0.00 | 0.00 | 30 | 1009.4 |
| 20260503215447 | 62 | 0 | 0.9 | 13.0 | 0.00 | 0.00 | 0.00 | 30 | 1009.6 |
| 20260503215406 | 62 | 0 | 0.9 | 13.0 | 0.00 | 0.00 | 0.00 | 31 | 1009.5 |
| 20260503215355 | 62 | 0 | 0.9 | 13.0 | 0.00 | 0.00 | 0.00 | 30 | 1009.5 |
| 20260503215146 | 62 | 0 | 0.9 | 13.0 | 0.00 | 0.00 | 0.00 | 29 | 1009.5 |
| 20260503215100 | 62 | 225 | 0.0 | 10.4 | 0.00 | 0.00 | 0.00 | 30 | 1009.5 |
| 20260503215054 | 62 | 0 | 0.9 | 13.0 | 0.00 | 0.00 | 0.00 | 29 | 1009.5 |
| 20260503215020 | 62 | 281 | 12.2 | 13.0 | 0.00 | 0.00 | 0.00 | 30 | 1009.3 |
| 20260503214859 | 62 | 246 | 0.0 | 7.8 | 0.00 | 0.00 | 0.00 | 29 | 1009.5 |
| 20260503214845 | 62 | 298 | 0.0 | 7.8 | 0.00 | 0.00 | 0.00 | 29 | 1009.5 |
| 20260503214744 | 62 | 226 | 0.0 | 7.8 | 0.00 | 0.00 | 0.00 | 30 | 1009.5 |
| 20260503214644 | 62 | 260 | 0.0 | 2.6 | 0.00 | 0.00 | 0.00 | 31 | 1009.5 |
| 20260503214543 | 62 | 276 | 0.0 | 6.1 | 0.00 | 0.00 | 0.00 | 31 | 1009.5 |
| 20260503214520 | 62 | 286 | 0.0 | 6.1 | 0.00 | 0.00 | 0.00 | 31 | 1009.3 |
| 20260503214443 | 62 | 254 | 0.0 | 6.1 | 0.00 | 0.00 | 0.00 | 31 | 1009.5 |
| 20260503214402 | 62 | 250 | 0.0 | 6.1 | 0.00 | 0.00 | 0.00 | 30 | 1009.5 |
| 20260503214358 | 62 | 264 | 0.0 | 6.1 | 0.00 | 0.00 | 0.00 | 31 | 1009.4 |
| 20260503214351 | 62 | 267 | 0.0 | 6.1 | 0.00 | 0.00 | 0.00 | 31 | 1009.4 |
| 20260503214142 | 62 | 284 | 0.0 | 6.1 | 0.00 | 0.00 | 0.00 | 30 | 1009.5 |
| 20260503214123 | 62 | 250 | 0.9 | 7.8 | 0.00 | 0.00 | 0.00 | 31 | 1009.5 |
| 20260503214041 | 62 | 289 | 0.9 | 7.8 | 0.00 | 0.00 | 0.00 | 30 | 1009.5 |
| 20260503214035 | 62 | 238 | 0.0 | 7.8 | 0.00 | 0.00 | 0.00 | 30 | 1009.3 |
| 20260503214007 | 62 | 291 | 0.9 | 7.8 | 0.00 | 0.00 | 0.00 | 30 | 1009.5 |
| 20260503213840 | 62 | 302 | 0.9 | 7.8 | 0.00 | 0.00 | 0.00 | 31 | 1009.5 |
| 20260503213738 | 62 | 232 | 0.9 | 7.8 | 0.00 | 0.00 | 0.00 | 30 | 1009.4 |
| 20260503213638 | 62 | 195 | 0.9 | 7.8 | 0.00 | 0.00 | 0.00 | 32 | 1009.4 |
| 20260503213536 | 62 | 241 | 0.9 | 7.8 | 0.00 | 0.00 | 0.00 | 32 | 1009.4 |
| 20260503213436 | 62 | 294 | 0.9 | 7.8 | 0.00 | 0.00 | 0.00 | 30 | 1009.4 |
| 20260503213359 | 62 | 272 | 0.9 | 7.8 | 0.00 | 0.00 | 0.00 | 30 | 1009.3 |
| 20260503213336 | 62 | 243 | 0.9 | 7.8 | 0.00 | 0.00 | 0.00 | 30 | 1009.3 |
| 20260503213235 | 62 | 241 | 0.9 | 11.3 | 0.00 | 0.00 | 0.00 | 30 | 1009.4 |
| 20260503213135 | 62 | 259 | 0.9 | 11.3 | 0.00 | 0.00 | 0.00 | 30 | 1009.4 |
| 20260503213050 | 62 | 238 | 0.9 | 11.3 | 0.00 | 0.00 | 0.00 | 33 | 1009.4 |
| 20260503213045 | 62 | 211 | 0.0 | 11.3 | 0.00 | 0.00 | 0.00 | 31 | 1009.3 |
| 20260503213035 | 62 | 268 | 0.0 | 11.3 | 0.00 | 0.00 | 0.00 | 31 | 1009.2 |
| 20260503212856 | 62 | 247 | 0.9 | 11.3 | 0.00 | 0.00 | 0.00 | 32 | 1009.4 |
| 20260503212851 | 62 | 0 | 0.9 | 11.3 | 0.00 | 0.00 | 0.00 | 30 | 1009.5 |
| 20260503212846 | 62 | 225 | 0.9 | 11.3 | 0.00 | 0.00 | 0.00 | 32 | 1009.4 |
| 20260503212634 | 62 | 0 | 0.9 | 11.3 | 0.00 | 0.00 | 0.00 | 31 | 1009.4 |
| 20260503212535 | 62 | 0 | 0.9 | 11.3 | 0.00 | 0.00 | 0.00 | 31 | 1009.4 |
| 20260503212520 | 62 | 360 | 0.0 | 11.3 | 0.00 | 0.00 | 0.00 | 31 | 1009.2 |
| 20260503212434 | 62 | 0 | 0.9 | 11.3 | 0.00 | 0.00 | 0.00 | 30 | 1009.4 |
| 20260503212348 | 62 | 0 | 0.9 | 9.6 | 0.00 | 0.00 | 0.00 | 30 | 1009.4 |
| 20260503212342 | 62 | 0 | 0.9 | 11.3 | 0.00 | 0.00 | 0.00 | 30 | 1009.4 |
| 20260503212133 | 62 | 0 | 0.9 | 13.0 | 0.00 | 0.00 | 0.00 | 29 | 1009.4 |
| 20260503212114 | 61 | 0 | 0.9 | 13.0 | 0.00 | 0.00 | 0.00 | 31 | 1009.5 |
| 20260503212032 | 62 | 0 | 0.9 | 13.0 | 0.00 | 0.00 | 0.00 | 29 | 1009.5 |
| 20260503212020 | 61 | 360 | 0.0 | 13.0 | 0.00 | 0.00 | 0.00 | 31 | 1009.3 |
| 20260503212002 | 61 | 0 | 0.9 | 13.0 | 0.00 | 0.00 | 0.00 | 31 | 1009.5 |
| 20260503211831 | 61 | 0 | 0.9 | 13.0 | 0.00 | 0.00 | 0.00 | 31 | 1009.5 |
| 20260503211730 | 61 | 0 | 0.9 | 13.0 | 0.00 | 0.00 | 0.00 | 31 | 1009.4 |
| 20260503211630 | 61 | 0 | 0.9 | 13.0 | 0.00 | 0.00 | 0.00 | 31 | 1009.4 |
| 20260503211530 | 61 | 0 | 0.9 | 13.0 | 0.00 | 0.00 | 0.00 | 31 | 1009.4 |
| 20260503211520 | 61 | 360 | 0.0 | 13.0 | 0.00 | 0.00 | 0.00 | 30 | 1009.3 |
| 20260503211428 | 61 | 0 | 0.9 | 13.0 | 0.00 | 0.00 | 0.00 | 30 | 1009.5 |
| 20260503211328 | 61 | 0 | 0.9 | 13.0 | 0.00 | 0.00 | 0.00 | 30 | 1009.4 |
| 20260503211228 | 61 | 0 | 0.9 | 13.0 | 0.00 | 0.00 | 0.00 | 30 | 1009.3 |
| 20260503211214 | 61 | 0 | 0.9 | 12.2 | 0.00 | 0.00 | 0.00 | 30 | 1009.4 |
| 20260503211211 | 61 | 0 | 0.9 | 12.2 | 0.00 | 0.00 | 0.00 | 29 | 1009.4 |
| 20260503211205 | 61 | 0 | 0.9 | 12.2 | 0.00 | 0.00 | 0.00 | 29 | 1009.4 |
| 20260503211159 | 61 | 0 | 0.9 | 12.2 | 0.00 | 0.00 | 0.00 | 32 | 1009.4 |
| 20260503211041 | 61 | 0 | 0.9 | 12.2 | 0.00 | 0.00 | 0.00 | 29 | 1009.5 |
| 20260503211035 | 61 | 360 | 0.0 | 11.3 | 0.00 | 0.00 | 0.00 | 30 | 1009.3 |
| 20260503210725 | 61 | 0 | 0.9 | 12.2 | 0.00 | 0.00 | 0.00 | 29 | 1009.4 |
| 20260503210643 | 61 | 0 | 0.9 | 12.2 | 0.00 | 0.00 | 0.00 | 30 | 1009.4 |
| 20260503210638 | 61 | 0 | 0.0 | 12.2 | 0.00 | 0.00 | 0.00 | 31 | 1009.4 |
| 20260503210633 | 61 | 0 | 0.9 | 12.2 | 0.00 | 0.00 | 0.00 | 31 | 1009.4 |
| 20260503210520 | 61 | 360 | 0.0 | 10.4 | 0.00 | 0.00 | 0.00 | 30 | 1009.2 |
| 20260503210501 | 60 | 0 | 0.9 | 12.2 | 0.00 | 0.00 | 0.00 | 29 | 1009.4 |
| 20260503210324 | 61 | 0 | 0.0 | 12.2 | 0.00 | 0.00 | 0.00 | 31 | 1009.4 |
| 20260503210238 | 61 | 0 | 0.9 | 9.6 | 0.00 | 0.00 | 0.00 | 31 | 1009.4 |
| 20260503210232 | 61 | 0 | 0.9 | 9.6 | 0.00 | 0.00 | 0.00 | 29 | 1009.4 |
| 20260503210023 | 61 | 0 | 0.9 | 9.6 | 0.00 | 0.00 | 0.00 | 31 | 1009.4 |
| 20260503210020 | 61 | 360 | 0.0 | 9.6 | 0.00 | 0.00 | 0.00 | 31 | 1009.3 |
| 20260503205936 | 61 | 0 | 0.9 | 9.6 | 0.00 | 0.00 | 0.00 | 30 | 1009.5 |
| 20260503205927 | 61 | 0 | 0.9 | 9.6 | 0.00 | 0.00 | 0.00 | 30 | 1009.5 |
| 20260503205746 | 61 | 0 | 0.0 | 9.6 | 0.00 | 0.00 | 0.00 | 30 | 1009.4 |
| 20260503205741 | 61 | 0 | 0.9 | 9.6 | 0.00 | 0.00 | 0.00 | 30 | 1009.3 |
| 20260503205628 | 61 | 0 | 0.9 | 9.6 | 0.00 | 0.00 | 0.00 | 30 | 1009.3 |
| 20260503205535 | 61 | 360 | 0.0 | 9.6 | 0.00 | 0.00 | 0.00 | 30 | 1009.3 |
| 20260503205459 | 62 | 0 | 0.0 | 9.6 | 0.00 | 0.00 | 0.00 | 30 | 1009.5 |
| 20260503205331 | 62 | 0 | 0.0 | 5.2 | 0.00 | 0.00 | 0.00 | 31 | 1009.4 |
| 20260503205326 | 62 | 0 | 0.0 | 9.6 | 0.00 | 0.00 | 0.00 | 30 | 1009.4 |
| 20260503205116 | 61 | 0 | 0.0 | 7.8 | 0.00 | 0.00 | 0.00 | 30 | 1009.4 |
| 20260503205059 | 61 | 0 | 0.0 | 7.8 | 0.00 | 0.00 | 0.00 | 31 | 1009.6 |
| 20260503205052 | 61 | 0 | 0.0 | 7.8 | 0.00 | 0.00 | 0.00 | 31 | 1009.4 |
| 20260503205020 | 61 | 360 | 0.0 | 7.8 | 0.00 | 0.00 | 0.00 | 31 | 1009.3 |
| 20260503204939 | 61 | 0 | 0.0 | 7.8 | 0.00 | 0.00 | 0.00 | 31 | 1009.5 |
| 20260503204931 | 61 | 0 | 0.0 | 7.8 | 0.00 | 0.00 | 0.00 | 31 | 1009.5 |